Time,TemperatureF,DewpointF,PressureIn,WindDirection,WindDirectionDegrees,WindSpeedMPH,WindSpeedGustMPH,Humidity,HourlyPrecipIn,Conditions,Clouds,dailyrainin,SoftwareType,DateUTC
2013-08-26 00:00:00,61.0,30.9,30.00,South,191,3.6,4.5,32,0.00,,---,0.00,VWS V14.01,2013-08-26 06:00:00,
2013-08-26 00:03:00,61.2,31.1,30.00,SSW,195,4.0,4.9,32,0.00,,---,0.00,VWS V14.01,2013-08-26 06:03:00,
2013-08-26 00:04:00,61.2,31.1,30.00,SSW,193,3.6,4.9,32,0.00,,---,0.00,VWS V14.01,2013-08-26 06:04:00,
2013-08-26 00:05:00,61.2,31.1,30.00,SSW,202,5.8,5.8,32,0.00,,---,0.00,VWS V14.01,2013-08-26 06:05:00,
2013-08-26 00:08:00,61.3,31.2,30.00,South,190,4.0,4.0,32,0.00,,---,0.00,VWS V14.01,2013-08-26 06:08:00,
2013-08-26 00:09:00,61.3,31.2,30.00,SSW,195,4.0,4.9,32,0.00,,---,0.00,VWS V14.01,2013-08-26 06:09:00,
2013-08-26 00:10:00,61.3,31.2,30.00,SSW,196,5.4,5.8,32,0.00,,---,0.00,VWS V14.01,2013-08-26 06:10:00,
2013-08-26 00:13:00,61.3,31.2,30.00,South,185,4.0,4.0,32,0.00,,---,0.00,VWS V14.01,2013-08-26 06:13:00,
2013-08-26 00:14:00,61.3,31.2,30.00,SSW,193,5.4,5.8,32,0.00,,---,0.00,VWS V14.01,2013-08-26 06:14:00,
2013-08-26 00:15:00,61.3,31.2,30.00,SSW,204,4.0,5.4,32,0.00,,---,0.00,VWS V14.01,2013-08-26 06:15:00,
2013-08-26 00:18:00,61.3,30.5,30.00,SSW,193,5.4,6.3,31,0.00,,---,0.00,VWS V14.01,2013-08-26 06:18:00,
2013-08-26 00:20:00,61.3,30.5,30.00,SSW,209,5.8,5.8,31,0.00,,---,0.00,VWS V14.01,2013-08-26 06:20:00,
2013-08-26 00:21:00,61.3,30.5,30.00,SSW,203,5.4,6.3,31,0.00,,---,0.00,VWS V14.01,2013-08-26 06:21:00,
2013-08-26 00:23:00,61.3,30.5,30.00,SSW,192,8.3,8.3,31,0.00,,---,0.00,VWS V14.01,2013-08-26 06:23:00,
2013-08-26 00:25:00,61.5,30.6,30.00,SSW,196,4.9,6.7,31,0.00,,---,0.00,VWS V14.01,2013-08-26 06:25:00,
2013-08-26 00:26:00,61.5,30.6,30.00,SSW,200,5.8,5.8,31,0.00,,---,0.00,VWS V14.01,2013-08-26 06:26:00,
2013-08-26 00:28:00,61.7,30.8,30.00,SSW,205,4.0,5.8,31,0.00,,---,0.00,VWS V14.01,2013-08-26 06:28:00,
2013-08-26 00:30:00,61.9,30.9,30.00,SSW,197,4.0,5.4,31,0.00,,---,0.00,VWS V14.01,2013-08-26 06:30:00,
2013-08-26 00:31:00,61.9,30.9,30.00,SSW,198,4.0,4.0,31,0.00,,---,0.00,VWS V14.01,2013-08-26 06:31:00,
2013-08-26 00:34:00,61.9,30.9,30.00,SSW,197,4.5,4.5,31,0.00,,---,0.00,VWS V14.01,2013-08-26 06:34:00,
2013-08-26 00:35:00,61.9,30.9,30.00,SSW,194,4.0,4.5,31,0.00,,---,0.00,VWS V14.01,2013-08-26 06:35:00,
2013-08-26 00:36:00,62.1,31.1,30.00,SSW,194,3.6,4.0,31,0.00,,---,0.00,VWS V14.01,2013-08-26 06:36:00,
2013-08-26 00:39:00,61.9,30.1,30.00,South,189,2.7,3.1,30,0.00,,---,0.00,VWS V14.01,2013-08-26 06:39:00,
2013-08-26 00:40:00,61.9,30.9,30.00,SSW,197,4.5,4.5,31,0.00,,---,0.00,VWS V14.01,2013-08-26 06:40:00,
2013-08-26 00:41:00,61.7,30.8,30.00,SSW,193,3.6,4.0,31,0.00,,---,0.00,VWS V14.01,2013-08-26 06:41:00,
2013-08-26 00:44:00,61.3,30.5,29.97,South,186,3.6,4.0,31,0.00,,---,0.00,VWS V14.01,2013-08-26 06:44:00,
2013-08-26 00:45:00,61.2,30.3,29.97,South,191,5.4,5.4,31,0.00,,---,0.00,VWS V14.01,2013-08-26 06:45:00,
2013-08-26 00:46:00,61.0,30.9,29.97,SSW,199,6.3,6.3,32,0.00,,---,0.00,VWS V14.01,2013-08-26 06:46:00,
2013-08-26 00:49:00,60.8,30.8,29.97,SSW,192,5.8,8.3,32,0.00,,---,0.00,VWS V14.01,2013-08-26 06:49:00,
2013-08-26 00:50:00,60.8,30.8,29.97,SSW,196,5.4,6.7,32,0.00,,---,0.00,VWS V14.01,2013-08-26 06:50:00,
2013-08-26 00:51:00,60.8,31.5,29.97,SSW,208,5.8,5.8,33,0.00,,---,0.00,VWS V14.01,2013-08-26 06:51:00,
2013-08-26 00:52:00,60.6,31.4,29.97,SSW,195,7.6,7.6,33,0.00,,---,0.00,VWS V14.01,2013-08-26 06:52:00,
2013-08-26 00:55:00,60.6,31.4,29.97,SSW,205,3.1,6.3,33,0.00,,---,0.00,VWS V14.01,2013-08-26 06:55:00,
2013-08-26 00:56:00,60.6,31.4,29.97,SSW,196,5.4,7.6,33,0.00,,---,0.00,VWS V14.01,2013-08-26 06:56:00,
2013-08-26 00:57:00,60.6,31.4,29.97,SSW,212,4.0,6.3,33,0.00,,---,0.00,VWS V14.01,2013-08-26 06:57:00,
2013-08-26 01:00:00,60.6,31.4,30.00,SSW,196,5.4,6.7,33,0.00,,---,0.00,VWS V14.01,2013-08-26 07:00:00,
2013-08-26 01:01:00,60.6,32.1,30.00,SSW,195,4.0,4.0,34,0.00,,---,0.00,VWS V14.01,2013-08-26 07:01:00,
2013-08-26 01:02:00,60.6,31.4,30.00,SSW,196,3.1,4.0,33,0.00,,---,0.00,VWS V14.01,2013-08-26 07:02:00,
2013-08-26 01:05:00,60.6,31.4,30.00,SSW,196,0.0,0.0,33,0.00,,---,0.00,VWS V14.01,2013-08-26 07:05:00,
2013-08-26 01:06:00,60.4,32.0,30.00,SSW,196,2.7,2.7,34,0.00,,---,0.00,VWS V14.01,2013-08-26 07:06:00,
2013-08-26 01:07:00,60.4,32.0,30.00,SSW,195,2.7,2.7,34,0.00,,---,0.00,VWS V14.01,2013-08-26 07:07:00,
2013-08-26 01:10:00,60.4,32.0,30.00,South,185,2.7,3.6,34,0.00,,---,0.00,VWS V14.01,2013-08-26 07:10:00,
2013-08-26 01:11:00,60.3,31.8,30.00,SSW,195,4.0,4.0,34,0.00,,---,0.00,VWS V14.01,2013-08-26 07:11:00,
2013-08-26 01:12:00,60.3,31.8,30.00,SSW,196,3.1,4.0,34,0.00,,---,0.00,VWS V14.01,2013-08-26 07:12:00,
2013-08-26 01:13:00,60.3,31.8,30.00,SSW,195,3.1,4.0,34,0.00,,---,0.00,VWS V14.01,2013-08-26 07:13:00,
2013-08-26 01:15:00,60.3,31.8,29.97,SSW,201,3.6,3.6,34,0.00,,---,0.00,VWS V14.01,2013-08-26 07:15:00,
2013-08-26 01:16:00,60.3,31.8,29.97,SSW,196,4.9,6.3,34,0.00,,---,0.00,VWS V14.01,2013-08-26 07:16:00,
2013-08-26 01:17:00,60.3,31.8,29.97,SSW,198,3.6,4.9,34,0.00,,---,0.00,VWS V14.01,2013-08-26 07:17:00,
2013-08-26 01:18:00,60.3,31.8,29.97,SSW,192,4.0,5.8,34,0.00,,---,0.00,VWS V14.01,2013-08-26 07:18:00,
2013-08-26 01:20:00,60.4,32.0,29.97,SSW,196,3.1,4.0,34,0.00,,---,0.00,VWS V14.01,2013-08-26 07:20:00,
2013-08-26 01:22:00,60.4,32.0,29.97,SSW,199,4.0,5.4,34,0.00,,---,0.00,VWS V14.01,2013-08-26 07:22:00,
2013-08-26 01:23:00,60.6,32.1,29.97,SSW,198,4.0,4.0,34,0.00,,---,0.00,VWS V14.01,2013-08-26 07:23:00,
2013-08-26 01:25:00,60.8,31.5,29.97,SSW,200,3.6,3.6,33,0.00,,---,0.00,VWS V14.01,2013-08-26 07:25:00,
2013-08-26 01:27:00,60.8,31.5,29.97,SSW,202,4.0,4.9,33,0.00,,---,0.00,VWS V14.01,2013-08-26 07:27:00,
2013-08-26 01:28:00,60.8,30.8,29.97,SSW,200,4.0,5.4,32,0.00,,---,0.00,VWS V14.01,2013-08-26 07:28:00,
2013-08-26 01:31:00,61.0,30.9,29.97,SSW,198,4.0,4.9,32,0.00,,---,0.00,VWS V14.01,2013-08-26 07:31:00,
2013-08-26 01:32:00,61.0,30.9,29.97,SSW,194,4.9,4.9,32,0.00,,---,0.00,VWS V14.01,2013-08-26 07:32:00,
2013-08-26 01:33:00,61.0,30.9,29.97,SSW,207,4.5,4.5,32,0.00,,---,0.00,VWS V14.01,2013-08-26 07:33:00,
2013-08-26 01:36:00,61.2,31.1,29.97,SSW,205,4.0,5.4,32,0.00,,---,0.00,VWS V14.01,2013-08-26 07:36:00,
2013-08-26 01:37:00,61.2,30.3,29.97,SSW,201,3.1,4.0,31,0.00,,---,0.00,VWS V14.01,2013-08-26 07:37:00,
2013-08-26 01:38:00,61.3,30.5,29.97,SSW,201,3.1,3.6,31,0.00,,---,0.00,VWS V14.01,2013-08-26 07:38:00,
2013-08-26 01:41:00,61.2,30.3,29.97,SSW,201,0.0,0.0,31,0.00,,---,0.00,VWS V14.01,2013-08-26 07:41:00,
2013-08-26 01:42:00,61.2,30.3,29.97,SSW,201,0.0,0.0,31,0.00,,---,0.00,VWS V14.01,2013-08-26 07:42:00,
2013-08-26 01:43:00,61.0,30.2,29.97,SSW,201,0.0,0.0,31,0.00,,---,0.00,VWS V14.01,2013-08-26 07:43:00,
2013-08-26 01:46:00,60.4,30.5,29.97,SSW,197,0.0,2.2,32,0.00,,---,0.00,VWS V14.01,2013-08-26 07:46:00,
2013-08-26 01:47:00,60.3,30.3,29.97,SSW,197,2.2,2.2,32,0.00,,---,0.00,VWS V14.01,2013-08-26 07:47:00,
2013-08-26 01:48:00,60.1,30.1,29.97,SSW,197,3.6,3.6,32,0.00,,---,0.00,VWS V14.01,2013-08-26 07:48:00,
2013-08-26 01:51:00,59.7,30.6,29.97,South,190,4.0,4.5,33,0.00,,---,0.00,VWS V14.01,2013-08-26 07:51:00,
2013-08-26 01:52:00,59.7,31.3,29.97,SSW,194,4.5,4.5,34,0.00,,---,0.00,VWS V14.01,2013-08-26 07:52:00,
2013-08-26 01:53:00,59.7,31.3,29.97,SSW,199,6.3,6.3,34,0.00,,---,0.00,VWS V14.01,2013-08-26 07:53:00,
2013-08-26 01:56:00,59.7,31.3,29.97,South,186,3.6,4.0,34,0.00,,---,0.00,VWS V14.01,2013-08-26 07:56:00,
2013-08-26 01:57:00,59.5,31.2,29.97,South,188,3.6,3.6,34,0.00,,---,0.00,VWS V14.01,2013-08-26 07:57:00,
2013-08-26 01:58:00,59.5,31.2,29.97,SSW,192,3.1,3.6,34,0.00,,---,0.00,VWS V14.01,2013-08-26 07:58:00,
2013-08-26 01:59:00,59.5,31.2,30.00,SSW,196,4.0,4.0,34,0.00,,---,0.00,VWS V14.01,2013-08-26 07:59:00,
2013-08-26 02:01:00,59.5,31.2,30.00,South,185,3.6,4.0,34,0.00,,---,0.00,VWS V14.01,2013-08-26 08:01:00,
2013-08-26 02:02:00,59.5,31.2,30.00,South,185,3.1,3.6,34,0.00,,---,0.00,VWS V14.01,2013-08-26 08:02:00,
2013-08-26 02:03:00,59.5,31.2,30.00,South,185,2.7,3.6,34,0.00,,---,0.00,VWS V14.01,2013-08-26 08:03:00,
2013-08-26 02:04:00,59.5,31.2,30.00,South,171,2.7,2.7,34,0.00,,---,0.00,VWS V14.01,2013-08-26 08:04:00,
2013-08-26 02:06:00,59.4,31.0,30.00,South,185,2.7,3.1,34,0.00,,---,0.00,VWS V14.01,2013-08-26 08:06:00,
2013-08-26 02:07:00,59.2,30.9,30.00,SSW,192,3.6,3.6,34,0.00,,---,0.00,VWS V14.01,2013-08-26 08:07:00,
2013-08-26 02:08:00,59.2,30.9,30.00,SSW,194,3.6,3.6,34,0.00,,---,0.00,VWS V14.01,2013-08-26 08:08:00,
2013-08-26 02:09:00,59.2,30.9,30.00,SSW,199,4.0,4.0,34,0.00,,---,0.00,VWS V14.01,2013-08-26 08:09:00,
2013-08-26 02:12:00,59.2,30.9,30.00,SSW,198,5.8,5.8,34,0.00,,---,0.00,VWS V14.01,2013-08-26 08:12:00,
2013-08-26 02:13:00,59.2,30.9,30.00,SSW,202,6.3,6.3,34,0.00,,---,0.00,VWS V14.01,2013-08-26 08:13:00,
2013-08-26 02:14:00,59.2,30.9,29.97,SSW,197,5.4,5.4,34,0.00,,---,0.00,VWS V14.01,2013-08-26 08:14:00,
2013-08-26 02:17:00,59.4,31.0,29.97,South,190,4.0,6.3,34,0.00,,---,0.00,VWS V14.01,2013-08-26 08:17:00,
2013-08-26 02:18:00,59.4,31.0,29.97,SSW,197,5.4,5.4,34,0.00,,---,0.00,VWS V14.01,2013-08-26 08:18:00,
2013-08-26 02:19:00,59.4,31.0,29.97,SSW,192,5.4,6.3,34,0.00,,---,0.00,VWS V14.01,2013-08-26 08:19:00,
2013-08-26 02:22:00,59.7,31.3,29.97,SSW,195,8.3,8.3,34,0.00,,---,0.00,VWS V14.01,2013-08-26 08:22:00,
2013-08-26 02:23:00,59.7,31.3,29.97,SSW,199,5.4,8.3,34,0.00,,---,0.00,VWS V14.01,2013-08-26 08:23:00,
2013-08-26 02:24:00,59.7,31.3,29.97,SSW,197,4.9,5.4,34,0.00,,---,0.00,VWS V14.01,2013-08-26 08:24:00,
2013-08-26 02:27:00,60.1,31.6,29.97,SSW,197,3.1,4.0,34,0.00,,---,0.00,VWS V14.01,2013-08-26 08:27:00,
2013-08-26 02:28:00,60.1,30.9,29.97,SSW,194,4.9,4.9,33,0.00,,---,0.00,VWS V14.01,2013-08-26 08:28:00,
2013-08-26 02:29:00,60.1,30.9,29.97,SSW,200,3.6,5.4,33,0.00,,---,0.00,VWS V14.01,2013-08-26 08:29:00,
2013-08-26 02:32:00,60.1,30.9,29.97,SSW,204,0.0,2.7,33,0.00,,---,0.00,VWS V14.01,2013-08-26 08:32:00,
2013-08-26 02:33:00,60.1,30.9,29.97,SSW,195,4.0,4.9,33,0.00,,---,0.00,VWS V14.01,2013-08-26 08:33:00,
2013-08-26 02:34:00,60.1,30.9,29.97,SSW,195,4.0,4.9,33,0.00,,---,0.00,VWS V14.01,2013-08-26 08:34:00,
2013-08-26 02:37:00,60.3,31.1,29.97,SSW,193,2.7,3.6,33,0.00,,---,0.00,VWS V14.01,2013-08-26 08:37:00,
2013-08-26 02:38:00,60.3,31.1,29.97,SSW,194,3.1,3.1,33,0.00,,---,0.00,VWS V14.01,2013-08-26 08:38:00,
2013-08-26 02:39:00,60.3,31.1,29.97,SSW,195,2.7,3.1,33,0.00,,---,0.00,VWS V14.01,2013-08-26 08:39:00,
2013-08-26 02:42:00,60.1,30.9,29.97,SSW,198,2.2,2.7,33,0.00,,---,0.00,VWS V14.01,2013-08-26 08:42:00,
2013-08-26 02:43:00,60.1,30.9,29.97,SSW,198,2.2,2.7,33,0.00,,---,0.00,VWS V14.01,2013-08-26 08:43:00,
2013-08-26 02:44:00,60.1,30.9,29.97,South,185,2.7,2.7,33,0.00,,---,0.00,VWS V14.01,2013-08-26 08:44:00,
2013-08-26 02:47:00,59.5,31.2,29.97,South,185,0.0,0.0,34,0.00,,---,0.00,VWS V14.01,2013-08-26 08:47:00,
2013-08-26 02:48:00,59.5,31.2,29.97,South,185,0.0,0.0,34,0.00,,---,0.00,VWS V14.01,2013-08-26 08:48:00,
2013-08-26 02:49:00,59.5,31.2,29.97,South,186,3.1,3.1,34,0.00,,---,0.00,VWS V14.01,2013-08-26 08:49:00,
2013-08-26 02:50:00,59.4,31.0,29.97,South,186,0.0,3.6,34,0.00,,---,0.00,VWS V14.01,2013-08-26 08:50:00,
2013-08-26 02:53:00,59.5,31.2,29.97,SSE,154,3.1,3.1,34,0.00,,---,0.00,VWS V14.01,2013-08-26 08:53:00,
2013-08-26 02:54:00,59.5,31.2,29.97,SSE,154,0.0,0.0,34,0.00,,---,0.00,VWS V14.01,2013-08-26 08:54:00,
2013-08-26 02:55:00,59.5,31.2,29.97,SSE,154,0.0,0.0,34,0.00,,---,0.00,VWS V14.01,2013-08-26 08:55:00,
2013-08-26 02:58:00,59.4,31.0,29.97,South,181,2.7,2.7,34,0.00,,---,0.00,VWS V14.01,2013-08-26 08:58:00,
2013-08-26 02:59:00,59.4,31.0,30.00,SSW,203,3.6,3.6,34,0.00,,---,0.00,VWS V14.01,2013-08-26 08:59:00,
2013-08-26 03:00:00,59.4,31.0,30.00,SSW,200,3.1,4.0,34,0.00,,---,0.00,VWS V14.01,2013-08-26 09:00:00,
2013-08-26 03:03:00,59.7,31.3,30.00,SSW,197,2.7,2.7,34,0.00,,---,0.00,VWS V14.01,2013-08-26 09:03:00,
2013-08-26 03:04:00,59.7,31.3,30.00,SSW,197,2.7,3.6,34,0.00,,---,0.00,VWS V14.01,2013-08-26 09:04:00,
2013-08-26 03:05:00,59.7,31.3,30.00,SSW,197,2.2,2.7,34,0.00,,---,0.00,VWS V14.01,2013-08-26 09:05:00,
2013-08-26 03:08:00,60.1,30.9,30.00,SSE,157,2.7,3.1,33,0.00,,---,0.00,VWS V14.01,2013-08-26 09:08:00,
2013-08-26 03:09:00,60.1,30.9,30.00,SSE,156,2.7,3.1,33,0.00,,---,0.00,VWS V14.01,2013-08-26 09:09:00,
2013-08-26 03:10:00,59.7,30.6,30.00,SSE,148,2.7,2.7,33,0.00,,---,0.00,VWS V14.01,2013-08-26 09:10:00,
2013-08-26 03:13:00,59.2,30.9,30.00,SSE,162,2.2,2.7,34,0.00,,---,0.00,VWS V14.01,2013-08-26 09:13:00,
2013-08-26 03:14:00,59.2,30.9,29.97,SSE,168,2.2,2.7,34,0.00,,---,0.00,VWS V14.01,2013-08-26 09:14:00,
2013-08-26 03:15:00,58.6,31.1,29.97,South,171,2.2,2.7,35,0.00,,---,0.00,VWS V14.01,2013-08-26 09:15:00,
2013-08-26 03:16:00,58.5,30.9,29.97,South,191,4.0,4.0,35,0.00,,---,0.00,VWS V14.01,2013-08-26 09:16:00,
2013-08-26 03:18:00,58.1,30.6,29.97,SSW,199,7.6,7.6,35,0.00,,---,0.00,VWS V14.01,2013-08-26 09:18:00,
2013-08-26 03:19:00,58.3,30.8,29.97,SSW,201,5.8,6.3,35,0.00,,---,0.00,VWS V14.01,2013-08-26 09:19:00,
2013-08-26 03:20:00,58.3,30.8,29.97,SSW,197,5.4,5.8,35,0.00,,---,0.00,VWS V14.01,2013-08-26 09:20:00,
2013-08-26 03:21:00,58.5,30.9,29.97,South,190,5.8,5.8,35,0.00,,---,0.00,VWS V14.01,2013-08-26 09:21:00,
2013-08-26 03:23:00,58.8,31.2,29.97,South,185,6.3,7.6,35,0.00,,---,0.00,VWS V14.01,2013-08-26 09:23:00,
2013-08-26 03:24:00,59.0,30.7,29.97,SSW,196,5.4,5.8,34,0.00,,---,0.00,VWS V14.01,2013-08-26 09:24:00,
2013-08-26 03:25:00,59.2,30.9,29.97,South,188,5.8,5.8,34,0.00,,---,0.00,VWS V14.01,2013-08-26 09:25:00,
2013-08-26 03:26:00,59.2,30.9,29.97,South,185,4.9,5.8,34,0.00,,---,0.00,VWS V14.01,2013-08-26 09:26:00,
2013-08-26 03:28:00,59.4,31.0,29.97,SSW,194,6.3,6.3,34,0.00,,---,0.00,VWS V14.01,2013-08-26 09:28:00,
2013-08-26 03:29:00,59.4,31.0,29.97,SSW,209,5.8,6.3,34,0.00,,---,0.00,VWS V14.01,2013-08-26 09:29:00,
2013-08-26 03:30:00,59.5,31.2,29.97,SSW,203,4.9,5.8,34,0.00,,---,0.00,VWS V14.01,2013-08-26 09:30:00,
2013-08-26 03:31:00,59.5,31.2,29.97,SSW,210,5.4,5.8,34,0.00,,---,0.00,VWS V14.01,2013-08-26 09:31:00,
2013-08-26 03:34:00,59.5,30.4,29.97,SSW,208,4.9,5.4,33,0.00,,---,0.00,VWS V14.01,2013-08-26 09:34:00,
2013-08-26 03:35:00,59.5,30.4,29.97,SSW,212,3.6,5.4,33,0.00,,---,0.00,VWS V14.01,2013-08-26 09:35:00,
2013-08-26 03:36:00,59.5,30.4,29.97,SSW,207,5.4,5.4,33,0.00,,---,0.00,VWS V14.01,2013-08-26 09:36:00,
2013-08-26 03:39:00,59.7,30.6,29.97,SSW,196,4.0,5.8,33,0.00,,---,0.00,VWS V14.01,2013-08-26 09:39:00,
2013-08-26 03:40:00,59.9,30.8,29.97,SW,222,5.4,5.8,33,0.00,,---,0.00,VWS V14.01,2013-08-26 09:40:00,
2013-08-26 03:41:00,59.9,30.8,29.97,South,181,5.8,5.8,33,0.00,,---,0.00,VWS V14.01,2013-08-26 09:41:00,
2013-08-26 03:44:00,60.1,30.1,29.97,SSW,210,5.4,5.4,32,0.00,,---,0.00,VWS V14.01,2013-08-26 09:44:00,
2013-08-26 03:45:00,60.1,30.1,29.97,SSW,205,4.0,5.4,32,0.00,,---,0.00,VWS V14.01,2013-08-26 09:45:00,
2013-08-26 03:46:00,60.1,30.1,29.97,SSW,204,4.0,4.5,32,0.00,,---,0.00,VWS V14.01,2013-08-26 09:46:00,
2013-08-26 03:49:00,60.3,30.3,29.97,SSW,206,5.4,5.4,32,0.00,,---,0.00,VWS V14.01,2013-08-26 09:49:00,
2013-08-26 03:50:00,60.4,30.5,29.97,SSW,201,5.8,5.8,32,0.00,,---,0.00,VWS V14.01,2013-08-26 09:50:00,
2013-08-26 03:51:00,60.4,29.7,29.97,SSW,197,5.4,5.8,31,0.00,,---,0.00,VWS V14.01,2013-08-26 09:51:00,
2013-08-26 03:52:00,60.6,29.8,29.97,SSW,210,5.4,5.4,31,0.00,,---,0.00,VWS V14.01,2013-08-26 09:52:00,
2013-08-26 03:54:00,60.8,30.0,29.97,SSW,202,4.5,4.9,31,0.00,,---,0.00,VWS V14.01,2013-08-26 09:54:00,
2013-08-26 03:55:00,60.8,30.0,29.97,SSW,192,5.4,5.4,31,0.00,,---,0.00,VWS V14.01,2013-08-26 09:55:00,
2013-08-26 03:56:00,61.0,29.4,29.97,SSW,195,5.4,5.4,30,0.00,,---,0.00,VWS V14.01,2013-08-26 09:56:00,
2013-08-26 03:57:00,61.0,29.4,29.97,SSW,195,5.4,5.4,30,0.00,,---,0.00,VWS V14.01,2013-08-26 09:57:00,
2013-08-26 03:59:00,61.2,29.5,29.97,South,191,5.8,6.3,30,0.00,,---,0.00,VWS V14.01,2013-08-26 09:59:00,
2013-08-26 04:00:00,61.3,29.7,29.97,SSW,196,5.8,5.8,30,0.00,,---,0.00,VWS V14.01,2013-08-26 10:00:00,
2013-08-26 04:01:00,61.3,29.7,29.97,SSW,197,5.8,7.6,30,0.00,,---,0.00,VWS V14.01,2013-08-26 10:01:00,
2013-08-26 04:02:00,61.3,29.7,29.97,SSW,203,6.3,6.3,30,0.00,,---,0.00,VWS V14.01,2013-08-26 10:02:00,
2013-08-26 04:04:00,61.0,29.4,29.97,South,190,6.3,7.2,30,0.00,,---,0.00,VWS V14.01,2013-08-26 10:04:00,
2013-08-26 04:05:00,61.0,29.4,29.97,SSW,197,5.4,6.3,30,0.00,,---,0.00,VWS V14.01,2013-08-26 10:05:00,
2013-08-26 04:06:00,61.0,29.4,29.97,SSW,197,5.4,6.3,30,0.00,,---,0.00,VWS V14.01,2013-08-26 10:06:00,
2013-08-26 04:07:00,60.8,29.2,29.97,SSW,199,4.9,4.9,30,0.00,,---,0.00,VWS V14.01,2013-08-26 10:07:00,
2013-08-26 04:09:00,60.8,29.2,29.97,South,189,4.5,5.8,30,0.00,,---,0.00,VWS V14.01,2013-08-26 10:09:00,
2013-08-26 04:10:00,60.8,29.2,29.97,SSW,195,4.9,4.9,30,0.00,,---,0.00,VWS V14.01,2013-08-26 10:10:00,
2013-08-26 04:11:00,60.6,29.0,29.97,SSW,196,3.6,5.8,30,0.00,,---,0.00,VWS V14.01,2013-08-26 10:11:00,
2013-08-26 04:12:00,60.6,29.0,29.97,SSW,193,4.9,6.3,30,0.00,,---,0.00,VWS V14.01,2013-08-26 10:12:00,
2013-08-26 04:14:00,60.6,29.8,29.97,SSW,197,4.9,4.9,31,0.00,,---,0.00,VWS V14.01,2013-08-26 10:14:00,
2013-08-26 04:15:00,60.4,29.7,29.97,South,187,5.8,5.8,31,0.00,,---,0.00,VWS V14.01,2013-08-26 10:15:00,
2013-08-26 04:16:00,60.3,29.5,29.97,SSW,195,4.0,5.8,31,0.00,,---,0.00,VWS V14.01,2013-08-26 10:16:00,
2013-08-26 04:17:00,60.3,29.5,29.97,SSW,196,4.0,4.9,31,0.00,,---,0.00,VWS V14.01,2013-08-26 10:17:00,
2013-08-26 04:19:00,59.9,29.2,29.97,SSW,198,3.6,4.0,31,0.00,,---,0.00,VWS V14.01,2013-08-26 10:19:00,
2013-08-26 04:20:00,59.9,29.2,29.97,SSW,202,4.5,4.9,31,0.00,,---,0.00,VWS V14.01,2013-08-26 10:20:00,
2013-08-26 04:22:00,59.7,29.8,29.97,SSW,198,4.0,5.8,32,0.00,,---,0.00,VWS V14.01,2013-08-26 10:22:00,
2013-08-26 04:24:00,59.4,29.5,29.97,SSW,192,4.0,6.3,32,0.00,,---,0.00,VWS V14.01,2013-08-26 10:24:00,
2013-08-26 04:25:00,59.4,29.5,29.97,SSW,196,5.4,5.4,32,0.00,,---,0.00,VWS V14.01,2013-08-26 10:25:00,
2013-08-26 04:27:00,59.2,30.1,29.97,South,189,5.4,5.4,33,0.00,,---,0.00,VWS V14.01,2013-08-26 10:27:00,
2013-08-26 04:29:00,59.0,30.0,29.97,SSE,158,2.7,3.1,33,0.00,,---,0.00,VWS V14.01,2013-08-26 10:29:00,
2013-08-26 04:30:00,58.8,29.8,29.97,South,177,2.7,3.1,33,0.00,,---,0.00,VWS V14.01,2013-08-26 10:30:00,
2013-08-26 04:32:00,58.6,30.4,29.97,South,179,3.1,3.1,34,0.00,,---,0.00,VWS V14.01,2013-08-26 10:32:00,
2013-08-26 04:35:00,58.5,30.2,29.97,SSW,200,5.8,5.8,34,0.00,,---,0.00,VWS V14.01,2013-08-26 10:35:00,
2013-08-26 04:37:00,58.3,30.8,29.97,SSW,206,5.8,5.8,35,0.00,,---,0.00,VWS V14.01,2013-08-26 10:37:00,
2013-08-26 04:40:00,58.1,30.6,29.97,SSW,203,5.4,5.4,35,0.00,,---,0.00,VWS V14.01,2013-08-26 10:40:00,
2013-08-26 04:42:00,58.1,30.6,29.97,SSW,207,4.0,5.4,35,0.00,,---,0.00,VWS V14.01,2013-08-26 10:42:00,
2013-08-26 04:45:00,58.5,30.9,29.97,SSW,205,5.4,5.8,35,0.00,,---,0.00,VWS V14.01,2013-08-26 10:45:00,
2013-08-26 04:47:00,58.5,30.2,29.97,SSW,203,5.4,5.4,34,0.00,,---,0.00,VWS V14.01,2013-08-26 10:47:00,
2013-08-26 04:50:00,59.2,30.1,29.97,SSW,203,4.0,4.9,33,0.00,,---,0.00,VWS V14.01,2013-08-26 10:50:00,
2013-08-26 04:51:00,59.2,30.1,29.97,SSW,193,4.0,4.9,33,0.00,,---,0.00,VWS V14.01,2013-08-26 10:51:00,
2013-08-26 04:52:00,59.4,30.3,29.97,South,181,4.0,5.4,33,0.00,,---,0.00,VWS V14.01,2013-08-26 10:52:00,
2013-08-26 04:53:00,59.4,30.3,29.97,SSW,200,4.0,4.9,33,0.00,,---,0.00,VWS V14.01,2013-08-26 10:53:00,
2013-08-26 04:56:00,59.7,29.8,29.97,SSW,196,4.0,4.9,32,0.00,,---,0.00,VWS V14.01,2013-08-26 10:56:00,
2013-08-26 04:57:00,59.7,29.8,29.97,SSW,196,4.9,4.9,32,0.00,,---,0.00,VWS V14.01,2013-08-26 10:57:00,
2013-08-26 04:58:00,59.7,29.8,29.97,South,189,4.0,5.4,32,0.00,,---,0.00,VWS V14.01,2013-08-26 10:58:00,
2013-08-26 05:01:00,59.7,29.8,29.97,South,191,4.0,4.9,32,0.00,,---,0.00,VWS V14.01,2013-08-26 11:01:00,
2013-08-26 05:02:00,59.7,29.8,29.97,South,179,3.6,3.6,32,0.00,,---,0.00,VWS V14.01,2013-08-26 11:02:00,
2013-08-26 05:03:00,59.7,29.8,29.97,South,170,2.7,3.6,32,0.00,,---,0.00,VWS V14.01,2013-08-26 11:03:00,
2013-08-26 05:06:00,59.7,29.8,29.97,SSE,154,2.7,2.7,32,0.00,,---,0.00,VWS V14.01,2013-08-26 11:06:00,
2013-08-26 05:08:00,59.2,29.4,29.97,SSE,152,3.1,3.1,32,0.00,,---,0.00,VWS V14.01,2013-08-26 11:08:00,
2013-08-26 05:11:00,58.3,29.3,29.97,SE,126,3.1,3.1,33,0.00,,---,0.00,VWS V14.01,2013-08-26 11:11:00,
2013-08-26 05:13:00,57.9,29.0,29.97,SE,137,2.7,3.1,33,0.00,,---,0.00,VWS V14.01,2013-08-26 11:13:00,
2013-08-26 05:14:00,57.7,29.6,29.97,South,180,2.7,2.7,34,0.00,,---,0.00,VWS V14.01,2013-08-26 11:14:00,
2013-08-26 05:16:00,57.4,30.0,29.97,South,190,6.3,6.3,35,0.00,,---,0.00,VWS V14.01,2013-08-26 11:16:00,
2013-08-26 05:17:00,57.4,30.0,29.97,SSW,206,4.0,6.3,35,0.00,,---,0.00,VWS V14.01,2013-08-26 11:17:00,
2013-08-26 05:18:00,57.4,30.0,29.97,South,180,4.9,5.4,35,0.00,,---,0.00,VWS V14.01,2013-08-26 11:18:00,
2013-08-26 05:19:00,57.7,30.3,29.97,SSW,210,3.6,5.4,35,0.00,,---,0.00,VWS V14.01,2013-08-26 11:19:00,
2013-08-26 05:21:00,58.1,30.6,29.97,South,186,3.6,5.4,35,0.00,,---,0.00,VWS V14.01,2013-08-26 11:21:00,
2013-08-26 05:22:00,58.1,30.6,29.97,South,190,3.6,5.4,35,0.00,,---,0.00,VWS V14.01,2013-08-26 11:22:00,
2013-08-26 05:23:00,58.1,30.6,29.97,SSW,192,0.0,2.7,35,0.00,,---,0.00,VWS V14.01,2013-08-26 11:23:00,
2013-08-26 05:24:00,58.1,30.6,29.97,NNW,331,3.6,3.6,35,0.00,,---,0.00,VWS V14.01,2013-08-26 11:24:00,
2013-08-26 05:25:00,58.3,30.8,29.97,NNW,332,2.7,3.6,35,0.00,,---,0.00,VWS V14.01,2013-08-26 11:25:00,
2013-08-26 05:27:00,58.3,30.8,29.97,North,349,3.1,3.1,35,0.00,,---,0.00,VWS V14.01,2013-08-26 11:27:00,
2013-08-26 05:28:00,58.1,30.6,29.97,NW,324,2.2,2.7,35,0.00,,---,0.00,VWS V14.01,2013-08-26 11:28:00,
2013-08-26 05:29:00,58.1,30.6,29.97,NW,324,2.2,2.7,35,0.00,,---,0.00,VWS V14.01,2013-08-26 11:29:00,
2013-08-26 05:30:00,58.1,30.6,29.97,NW,324,2.2,2.2,35,0.00,,---,0.00,VWS V14.01,2013-08-26 11:30:00,
2013-08-26 05:32:00,58.1,30.6,29.97,NW,304,0.0,2.2,35,0.00,,---,0.00,VWS V14.01,2013-08-26 11:32:00,
2013-08-26 05:34:00,58.1,30.6,29.97,NW,304,0.0,0.0,35,0.00,,---,0.00,VWS V14.01,2013-08-26 11:34:00,
2013-08-26 05:35:00,58.1,30.6,29.97,NW,304,0.0,0.0,35,0.00,,---,0.00,VWS V14.01,2013-08-26 11:35:00,
2013-08-26 05:37:00,58.3,30.8,29.97,WNW,287,3.1,3.1,35,0.00,,---,0.00,VWS V14.01,2013-08-26 11:37:00,
2013-08-26 05:39:00,58.5,30.9,29.97,West,276,3.6,4.9,35,0.00,,---,0.00,VWS V14.01,2013-08-26 11:39:00,
2013-08-26 05:40:00,58.8,31.2,29.97,West,276,3.1,3.6,35,0.00,,---,0.00,VWS V14.01,2013-08-26 11:40:00,
2013-08-26 05:42:00,59.0,30.7,29.97,WNW,294,2.7,2.7,34,0.00,,---,0.00,VWS V14.01,2013-08-26 11:42:00,
2013-08-26 05:44:00,59.4,31.0,29.97,NW,308,3.1,3.1,34,0.00,,---,0.00,VWS V14.01,2013-08-26 11:44:00,
2013-08-26 05:45:00,59.4,31.0,29.97,NW,308,2.7,2.7,34,0.00,,---,0.00,VWS V14.01,2013-08-26 11:45:00,
2013-08-26 05:47:00,59.7,30.6,29.97,WNW,298,2.2,2.7,33,0.00,,---,0.00,VWS V14.01,2013-08-26 11:47:00,
2013-08-26 05:48:00,60.1,30.9,29.97,WNW,298,2.2,2.7,33,0.00,,---,0.00,VWS V14.01,2013-08-26 11:48:00,
2013-08-26 05:49:00,60.1,30.9,29.97,WNW,300,2.7,2.7,33,0.00,,---,0.00,VWS V14.01,2013-08-26 11:49:00,
2013-08-26 05:50:00,60.3,30.3,29.97,WNW,295,3.1,3.1,32,0.00,,---,0.00,VWS V14.01,2013-08-26 11:50:00,
2013-08-26 05:52:00,60.8,30.0,29.97,NW,305,3.1,3.1,31,0.00,,---,0.00,VWS V14.01,2013-08-26 11:52:00,
2013-08-26 05:53:00,60.8,30.0,29.97,WNW,300,2.7,2.7,31,0.00,,---,0.00,VWS V14.01,2013-08-26 11:53:00,
2013-08-26 05:54:00,61.0,30.2,29.97,WNW,301,4.0,4.0,31,0.00,,---,0.00,VWS V14.01,2013-08-26 11:54:00,
2013-08-26 05:55:00,61.3,29.7,29.97,WNW,301,2.2,4.0,30,0.00,,---,0.00,VWS V14.01,2013-08-26 11:55:00,
2013-08-26 05:57:00,61.5,29.8,29.97,NNW,331,2.7,3.1,30,0.00,,---,0.00,VWS V14.01,2013-08-26 11:57:00,
2013-08-26 05:58:00,61.5,29.8,30.00,NW,309,2.2,3.6,30,0.00,,---,0.00,VWS V14.01,2013-08-26 11:58:00,
2013-08-26 05:59:00,61.7,29.1,30.00,WNW,300,2.2,3.6,29,0.00,,---,0.00,VWS V14.01,2013-08-26 11:59:00,
2013-08-26 06:00:00,61.7,29.1,30.00,WNW,284,3.6,3.6,29,0.00,,---,0.00,VWS V14.01,2013-08-26 12:00:00,
2013-08-26 06:02:00,61.7,29.1,30.00,WNW,284,4.0,4.0,29,0.00,,---,0.00,VWS V14.01,2013-08-26 12:02:00,
2013-08-26 06:04:00,61.7,29.1,30.00,WNW,284,3.6,4.0,29,0.00,,---,0.00,VWS V14.01,2013-08-26 12:04:00,
2013-08-26 06:05:00,61.7,29.1,30.00,WNW,283,2.7,4.0,29,0.00,,---,0.00,VWS V14.01,2013-08-26 12:05:00,
2013-08-26 06:07:00,61.5,29.0,30.00,West,280,0.0,0.0,29,0.00,,---,0.00,VWS V14.01,2013-08-26 12:07:00,
2013-08-26 06:09:00,61.5,29.0,30.00,West,280,0.0,0.0,29,0.00,,---,0.00,VWS V14.01,2013-08-26 12:09:00,
2013-08-26 06:10:00,61.3,28.8,30.00,West,280,0.0,0.0,29,0.00,,---,0.00,VWS V14.01,2013-08-26 12:10:00,
2013-08-26 06:12:00,61.2,28.7,30.00,SW,215,2.7,2.7,29,0.00,,---,0.00,VWS V14.01,2013-08-26 12:12:00,
2013-08-26 06:14:00,60.8,29.2,30.00,South,189,2.2,2.7,30,0.00,,---,0.00,VWS V14.01,2013-08-26 12:14:00,
2013-08-26 06:15:00,60.8,29.2,30.00,South,189,2.2,2.7,30,0.00,,---,0.00,VWS V14.01,2013-08-26 12:15:00,
2013-08-26 06:17:00,60.1,29.4,30.00,South,187,2.7,2.7,31,0.00,,---,0.00,VWS V14.01,2013-08-26 12:17:00,
2013-08-26 06:19:00,59.5,29.7,30.00,South,176,2.7,3.1,32,0.00,,---,0.00,VWS V14.01,2013-08-26 12:19:00,
2013-08-26 06:20:00,59.4,29.5,30.00,South,187,4.0,4.0,32,0.00,,---,0.00,VWS V14.01,2013-08-26 12:20:00,
2013-08-26 06:21:00,59.2,29.4,30.00,South,181,2.7,4.0,32,0.00,,---,0.00,VWS V14.01,2013-08-26 12:21:00,
2013-08-26 06:22:00,58.6,29.6,30.00,South,189,4.0,4.0,33,0.00,,---,0.00,VWS V14.01,2013-08-26 12:22:00,
2013-08-26 06:24:00,57.9,29.7,30.00,SSW,198,3.6,4.0,34,0.00,,---,0.00,VWS V14.01,2013-08-26 12:24:00,
2013-08-26 06:25:00,57.9,29.7,30.00,South,185,4.5,5.8,34,0.00,,---,0.00,VWS V14.01,2013-08-26 12:25:00,
2013-08-26 06:26:00,57.7,30.3,30.00,SSW,202,5.4,5.4,35,0.00,,---,0.00,VWS V14.01,2013-08-26 12:26:00,
2013-08-26 06:28:00,57.6,30.1,30.00,South,186,3.6,7.6,35,0.00,,---,0.00,VWS V14.01,2013-08-26 12:28:00,
2013-08-26 06:29:00,57.4,30.0,30.00,SSW,195,4.9,5.4,35,0.00,,---,0.00,VWS V14.01,2013-08-26 12:29:00,
2013-08-26 06:30:00,57.4,30.0,30.00,South,183,4.0,5.4,35,0.00,,---,0.00,VWS V14.01,2013-08-26 12:30:00,
2013-08-26 06:31:00,57.2,29.8,30.00,SSW,195,5.4,6.3,35,0.00,,---,0.00,VWS V14.01,2013-08-26 12:31:00,
2013-08-26 06:33:00,57.2,29.8,30.00,SSW,194,4.9,5.8,35,0.00,,---,0.00,VWS V14.01,2013-08-26 12:33:00,
2013-08-26 06:35:00,57.2,29.8,30.00,SSW,199,4.0,5.8,35,0.00,,---,0.00,VWS V14.01,2013-08-26 12:35:00,
2013-08-26 06:36:00,57.4,30.0,30.00,SSW,196,5.8,6.3,35,0.00,,---,0.00,VWS V14.01,2013-08-26 12:36:00,
2013-08-26 06:39:00,57.6,30.1,30.00,SSW,202,4.9,4.9,35,0.00,,---,0.00,VWS V14.01,2013-08-26 12:39:00,
2013-08-26 06:40:00,57.6,30.1,30.00,SW,222,4.0,5.4,35,0.00,,---,0.00,VWS V14.01,2013-08-26 12:40:00,
2013-08-26 06:41:00,57.7,30.3,30.00,SSW,208,3.1,4.9,35,0.00,,---,0.00,VWS V14.01,2013-08-26 12:41:00,
2013-08-26 06:44:00,57.9,30.5,29.97,SSW,208,4.0,4.0,35,0.00,,---,0.00,VWS V14.01,2013-08-26 12:44:00,
2013-08-26 06:45:00,58.1,30.6,29.97,SSW,203,3.6,4.9,35,0.00,,---,0.00,VWS V14.01,2013-08-26 12:45:00,
2013-08-26 06:46:00,58.3,30.8,29.97,SSW,206,2.7,3.1,35,0.00,,---,0.00,VWS V14.01,2013-08-26 12:46:00,
2013-08-26 06:49:00,58.5,30.9,29.97,SSW,210,3.1,4.0,35,0.00,,---,0.00,VWS V14.01,2013-08-26 12:49:00,
2013-08-26 06:50:00,58.5,30.2,29.97,SSW,208,3.1,4.0,34,0.00,,---,0.00,VWS V14.01,2013-08-26 12:50:00,
2013-08-26 06:51:00,58.6,30.4,29.97,SSW,208,4.0,4.0,34,0.00,,---,0.00,VWS V14.01,2013-08-26 12:51:00,
2013-08-26 06:54:00,59.0,30.7,29.97,SSW,206,3.6,3.6,34,0.00,,---,0.00,VWS V14.01,2013-08-26 12:54:00,
2013-08-26 06:55:00,59.2,30.1,29.97,SSW,207,2.2,3.1,33,0.00,,---,0.00,VWS V14.01,2013-08-26 12:55:00,
2013-08-26 06:56:00,59.2,30.1,29.97,SSW,207,2.7,2.7,33,0.00,,---,0.00,VWS V14.01,2013-08-26 12:56:00,
2013-08-26 06:59:00,59.2,30.1,30.00,SSW,207,0.0,2.7,33,0.00,,---,0.00,VWS V14.01,2013-08-26 12:59:00,
2013-08-26 07:00:00,59.2,30.1,30.00,SSW,207,2.2,2.2,33,0.00,,---,0.00,VWS V14.01,2013-08-26 13:00:00,
2013-08-26 07:01:00,59.2,30.1,30.00,SSW,207,0.0,2.2,33,0.00,,---,0.00,VWS V14.01,2013-08-26 13:01:00,
2013-08-26 07:04:00,59.2,30.1,30.00,SSW,207,0.0,2.2,33,0.00,,---,0.00,VWS V14.01,2013-08-26 13:04:00,
2013-08-26 07:05:00,59.4,30.3,30.00,SSW,207,0.0,0.0,33,0.00,,---,0.00,VWS V14.01,2013-08-26 13:05:00,
2013-08-26 07:06:00,59.4,30.3,30.00,SSW,207,0.0,0.0,33,0.00,,---,0.00,VWS V14.01,2013-08-26 13:06:00,
2013-08-26 07:09:00,59.7,29.8,30.00,SSW,207,2.2,2.7,32,0.00,,---,0.00,VWS V14.01,2013-08-26 13:09:00,
2013-08-26 07:11:00,59.5,29.7,30.00,SSW,207,0.0,2.2,32,0.00,,---,0.00,VWS V14.01,2013-08-26 13:11:00,
2013-08-26 07:14:00,59.2,29.4,30.00,SSW,207,2.2,2.2,32,0.00,,---,0.00,VWS V14.01,2013-08-26 13:14:00,
2013-08-26 07:16:00,58.8,29.8,30.00,SSW,207,2.2,2.2,33,0.00,,---,0.00,VWS V14.01,2013-08-26 13:16:00,
2013-08-26 07:17:00,58.8,29.8,30.00,SSW,207,2.2,2.2,33,0.00,,---,0.00,VWS V14.01,2013-08-26 13:17:00,
2013-08-26 07:19:00,58.5,30.2,30.00,SSW,207,2.2,2.2,34,0.00,,---,0.00,VWS V14.01,2013-08-26 13:19:00,
2013-08-26 07:21:00,58.3,30.1,30.00,SSW,207,0.0,2.2,34,0.00,,---,0.00,VWS V14.01,2013-08-26 13:21:00,
2013-08-26 07:22:00,58.1,29.9,30.00,SSW,207,0.0,0.0,34,0.00,,---,0.00,VWS V14.01,2013-08-26 13:22:00,
2013-08-26 07:24:00,57.9,30.5,30.00,SSW,207,0.0,0.0,35,0.00,,---,0.00,VWS V14.01,2013-08-26 13:24:00,
2013-08-26 07:26:00,57.9,30.5,30.00,SSW,204,2.2,2.2,35,0.00,,---,0.00,VWS V14.01,2013-08-26 13:26:00,
2013-08-26 07:27:00,57.7,30.3,30.00,South,187,2.2,2.2,35,0.00,,---,0.00,VWS V14.01,2013-08-26 13:27:00,
2013-08-26 07:29:00,57.6,30.1,30.00,South,190,2.7,3.6,35,0.00,,---,0.00,VWS V14.01,2013-08-26 13:29:00,
2013-08-26 07:31:00,57.6,30.1,30.00,SSW,192,3.1,3.6,35,0.00,,---,0.00,VWS V14.01,2013-08-26 13:31:00,
2013-08-26 07:32:00,57.6,30.1,30.00,SSW,192,2.7,3.6,35,0.00,,---,0.00,VWS V14.01,2013-08-26 13:32:00,
2013-08-26 07:34:00,57.6,30.1,30.00,SSW,192,2.7,3.6,35,0.00,,---,0.00,VWS V14.01,2013-08-26 13:34:00,
2013-08-26 07:36:00,57.6,30.1,30.00,SSW,192,2.2,2.2,35,0.00,,---,0.00,VWS V14.01,2013-08-26 13:36:00,
2013-08-26 07:37:00,57.6,30.1,30.00,SSE,158,2.7,2.7,35,0.00,,---,0.00,VWS V14.01,2013-08-26 13:37:00,
2013-08-26 07:39:00,57.7,30.3,30.00,SE,141,2.7,3.6,35,0.00,,---,0.00,VWS V14.01,2013-08-26 13:39:00,
2013-08-26 07:41:00,57.9,30.5,30.00,SSW,205,4.0,4.0,35,0.00,,---,0.00,VWS V14.01,2013-08-26 13:41:00,
2013-08-26 07:42:00,57.9,30.5,30.00,SSW,202,3.1,4.0,35,0.00,,---,0.00,VWS V14.01,2013-08-26 13:42:00,
2013-08-26 07:45:00,57.9,30.5,30.00,SSW,197,4.0,5.8,35,0.00,,---,0.00,VWS V14.01,2013-08-26 13:45:00,
2013-08-26 07:46:00,57.9,30.5,30.00,SSW,193,3.6,4.0,35,0.00,,---,0.00,VWS V14.01,2013-08-26 13:46:00,
2013-08-26 07:47:00,57.9,30.5,30.00,SSW,199,4.5,4.5,35,0.00,,---,0.00,VWS V14.01,2013-08-26 13:47:00,
2013-08-26 07:50:00,58.3,30.8,30.00,South,184,2.7,2.7,35,0.00,,---,0.00,VWS V14.01,2013-08-26 13:50:00,
2013-08-26 07:51:00,58.5,30.9,30.00,South,181,3.1,3.1,35,0.00,,---,0.00,VWS V14.01,2013-08-26 13:51:00,
2013-08-26 07:52:00,58.5,30.9,30.00,South,181,3.1,3.1,35,0.00,,---,0.00,VWS V14.01,2013-08-26 13:52:00,
2013-08-26 07:53:00,58.6,31.1,30.00,South,181,3.1,3.1,35,0.00,,---,0.00,VWS V14.01,2013-08-26 13:53:00,
2013-08-26 07:55:00,58.8,31.2,30.00,South,189,2.2,2.7,35,0.00,,---,0.00,VWS V14.01,2013-08-26 13:55:00,
2013-08-26 07:56:00,59.2,30.9,30.00,South,189,2.7,2.7,34,0.00,,---,0.00,VWS V14.01,2013-08-26 13:56:00,
2013-08-26 07:57:00,59.2,30.9,30.00,South,189,2.7,2.7,34,0.00,,---,0.00,VWS V14.01,2013-08-26 13:57:00,
2013-08-26 07:58:00,59.4,31.0,30.00,South,189,0.0,2.7,34,0.00,,---,0.00,VWS V14.01,2013-08-26 13:58:00,
2013-08-26 08:00:00,59.5,31.2,30.00,South,189,0.0,0.0,34,0.00,,---,0.00,VWS V14.01,2013-08-26 14:00:00,
2013-08-26 08:01:00,59.7,31.3,30.00,South,188,2.2,3.6,34,0.00,,---,0.00,VWS V14.01,2013-08-26 14:01:00,
2013-08-26 08:02:00,59.7,31.3,30.00,South,188,2.7,2.7,34,0.00,,---,0.00,VWS V14.01,2013-08-26 14:02:00,
2013-08-26 08:03:00,59.7,31.3,30.00,South,188,2.7,2.7,34,0.00,,---,0.00,VWS V14.01,2013-08-26 14:03:00,
2013-08-26 08:05:00,59.7,31.3,30.00,SSW,193,3.1,3.1,34,0.00,,---,0.00,VWS V14.01,2013-08-26 14:05:00,
2013-08-26 08:06:00,59.7,31.3,30.00,SSW,193,2.7,3.1,34,0.00,,---,0.00,VWS V14.01,2013-08-26 14:06:00,
2013-08-26 08:07:00,59.7,31.3,30.00,SSW,193,0.0,2.7,34,0.00,,---,0.00,VWS V14.01,2013-08-26 14:07:00,
2013-08-26 08:09:00,59.7,31.3,30.00,SSW,193,2.7,2.7,34,0.00,,---,0.00,VWS V14.01,2013-08-26 14:09:00,
2013-08-26 08:10:00,59.7,31.3,30.00,SSW,193,2.7,3.1,34,0.00,,---,0.00,VWS V14.01,2013-08-26 14:10:00,
2013-08-26 08:11:00,59.9,31.5,30.00,SSW,193,2.7,2.7,34,0.00,,---,0.00,VWS V14.01,2013-08-26 14:11:00,
2013-08-26 08:12:00,59.9,31.5,30.00,SSW,193,2.7,2.7,34,0.00,,---,0.00,VWS V14.01,2013-08-26 14:12:00,
2013-08-26 08:14:00,60.1,31.6,30.00,SSW,193,2.7,2.7,34,0.00,,---,0.00,VWS V14.01,2013-08-26 14:14:00,
2013-08-26 08:15:00,60.3,31.8,30.00,SSW,192,2.7,3.1,34,0.00,,---,0.00,VWS V14.01,2013-08-26 14:15:00,
2013-08-26 08:17:00,60.6,32.1,30.00,SSW,192,0.0,0.0,34,0.00,,---,0.00,VWS V14.01,2013-08-26 14:17:00,
2013-08-26 08:19:00,61.0,32.4,30.00,SSE,168,2.7,2.7,34,0.00,,---,0.00,VWS V14.01,2013-08-26 14:19:00,
2013-08-26 08:20:00,61.2,32.6,30.00,SSE,168,0.0,3.1,34,0.00,,---,0.00,VWS V14.01,2013-08-26 14:20:00,
2013-08-26 08:22:00,61.5,32.2,30.00,SSE,168,0.0,0.0,33,0.00,,---,0.00,VWS V14.01,2013-08-26 14:22:00,
2013-08-26 08:24:00,61.9,32.5,30.00,SSE,168,0.0,0.0,33,0.00,,---,0.00,VWS V14.01,2013-08-26 14:24:00,
2013-08-26 08:25:00,62.1,31.9,30.00,SSE,168,0.0,0.0,32,0.00,,---,0.00,VWS V14.01,2013-08-26 14:25:00,
2013-08-26 08:27:00,62.2,32.0,30.00,SSE,168,0.0,0.0,32,0.00,,---,0.00,VWS V14.01,2013-08-26 14:27:00,
2013-08-26 08:29:00,62.6,31.6,30.00,SSE,168,0.0,0.0,31,0.00,,---,0.00,VWS V14.01,2013-08-26 14:29:00,
2013-08-26 08:30:00,62.6,31.6,30.00,SSE,168,0.0,0.0,31,0.00,,---,0.00,VWS V14.01,2013-08-26 14:30:00,
2013-08-26 08:32:00,62.8,31.7,30.00,SSE,168,2.2,2.2,31,0.00,,---,0.00,VWS V14.01,2013-08-26 14:32:00,
2013-08-26 08:34:00,63.1,31.2,30.00,SSE,168,0.0,0.0,30,0.00,,---,0.00,VWS V14.01,2013-08-26 14:34:00,
2013-08-26 08:36:00,63.3,30.5,30.00,SSE,168,0.0,0.0,29,0.00,,---,0.00,VWS V14.01,2013-08-26 14:36:00,
2013-08-26 08:37:00,63.5,30.7,30.00,SSE,168,0.0,0.0,29,0.00,,---,0.00,VWS V14.01,2013-08-26 14:37:00,
2013-08-26 08:39:00,63.9,31.0,30.00,SSE,168,0.0,0.0,29,0.00,,---,0.00,VWS V14.01,2013-08-26 14:39:00,
2013-08-26 08:41:00,64.4,30.6,30.00,SSE,156,2.2,2.7,28,0.00,,---,0.00,VWS V14.01,2013-08-26 14:41:00,
2013-08-26 08:42:00,64.6,29.9,30.00,SSE,156,2.7,2.7,27,0.00,,---,0.00,VWS V14.01,2013-08-26 14:42:00,
2013-08-26 08:43:00,64.8,30.0,30.00,SSE,155,2.2,2.7,27,0.00,,---,0.00,VWS V14.01,2013-08-26 14:43:00,
2013-08-26 08:45:00,65.1,31.2,30.00,North,357,3.1,3.1,28,0.00,,---,0.00,VWS V14.01,2013-08-26 14:45:00,
2013-08-26 08:46:00,65.5,31.5,30.00,NNE,23,2.7,2.7,28,0.00,,---,0.00,VWS V14.01,2013-08-26 14:46:00,
2013-08-26 08:47:00,65.5,31.5,30.00,North,5,2.7,3.1,28,0.00,,---,0.00,VWS V14.01,2013-08-26 14:47:00,
2013-08-26 08:48:00,65.7,31.7,30.00,North,6,2.7,3.1,28,0.00,,---,0.00,VWS V14.01,2013-08-26 14:48:00,
2013-08-26 08:50:00,65.8,31.0,30.00,North,10,2.7,3.6,27,0.00,,---,0.00,VWS V14.01,2013-08-26 14:50:00,
2013-08-26 08:51:00,66.0,31.1,30.00,North,5,2.7,2.7,27,0.00,,---,0.00,VWS V14.01,2013-08-26 14:51:00,
2013-08-26 08:52:00,66.0,32.0,30.00,North,5,2.7,3.6,28,0.00,,---,0.00,VWS V14.01,2013-08-26 14:52:00,
2013-08-26 08:53:00,66.0,32.0,30.00,North,5,2.7,3.6,28,0.00,,---,0.00,VWS V14.01,2013-08-26 14:53:00,
2013-08-26 08:55:00,66.4,31.4,30.00,NNE,14,3.1,3.1,27,0.00,,---,0.00,VWS V14.01,2013-08-26 14:55:00,
2013-08-26 08:56:00,66.6,31.6,30.00,NNE,14,3.1,3.1,27,0.00,,---,0.00,VWS V14.01,2013-08-26 14:56:00,
2013-08-26 08:57:00,66.6,31.6,30.00,North,3,3.6,3.6,27,0.00,,---,0.00,VWS V14.01,2013-08-26 14:57:00,
2013-08-26 08:58:00,66.7,31.7,30.00,North,5,3.6,3.6,27,0.00,,---,0.00,VWS V14.01,2013-08-26 14:58:00,
2013-08-26 09:00:00,66.7,31.7,30.00,NNE,17,3.1,3.6,27,0.00,,---,0.00,VWS V14.01,2013-08-26 15:00:00,
2013-08-26 09:01:00,66.9,31.9,30.00,NNE,19,2.7,3.1,27,0.00,,---,0.00,VWS V14.01,2013-08-26 15:01:00,
2013-08-26 09:02:00,67.1,32.0,30.00,East,98,4.0,4.0,27,0.00,,---,0.00,VWS V14.01,2013-08-26 15:02:00,
2013-08-26 09:03:00,67.1,32.0,30.00,North,11,4.0,4.0,27,0.00,,---,0.00,VWS V14.01,2013-08-26 15:03:00,
2013-08-26 09:05:00,67.3,32.2,30.00,NNE,18,2.2,4.0,27,0.00,,---,0.00,VWS V14.01,2013-08-26 15:05:00,
2013-08-26 09:06:00,67.3,32.2,30.00,NNE,23,3.6,4.0,27,0.00,,---,0.00,VWS V14.01,2013-08-26 15:06:00,
2013-08-26 09:08:00,67.3,32.2,30.00,North,8,3.1,3.6,27,0.00,,---,0.00,VWS V14.01,2013-08-26 15:08:00,
2013-08-26 09:10:00,67.3,32.2,30.00,North,357,3.1,3.6,27,0.00,,---,0.00,VWS V14.01,2013-08-26 15:10:00,
2013-08-26 09:11:00,67.1,32.0,30.00,NE,35,0.0,3.1,27,0.00,,---,0.00,VWS V14.01,2013-08-26 15:11:00,
2013-08-26 09:13:00,67.1,32.0,30.00,NE,35,0.0,2.2,27,0.00,,---,0.00,VWS V14.01,2013-08-26 15:13:00,
2013-08-26 09:14:00,67.3,32.2,30.00,East,97,2.7,2.7,27,0.00,,---,0.00,VWS V14.01,2013-08-26 15:14:00,
2013-08-26 09:15:00,67.6,32.5,30.00,ENE,76,0.0,2.2,27,0.00,,---,0.00,VWS V14.01,2013-08-26 15:15:00,
2013-08-26 09:16:00,68.0,31.9,30.00,NNE,20,3.1,3.1,26,0.00,,---,0.00,VWS V14.01,2013-08-26 15:16:00,
2013-08-26 09:18:00,68.0,31.9,30.00,North,4,2.7,2.7,26,0.00,,---,0.00,VWS V14.01,2013-08-26 15:18:00,
2013-08-26 09:19:00,67.8,32.7,30.00,ENE,58,2.2,3.1,27,0.00,,---,0.00,VWS V14.01,2013-08-26 15:19:00,
2013-08-26 09:21:00,67.8,32.7,30.00,NNE,12,2.7,3.6,27,0.00,,---,0.00,VWS V14.01,2013-08-26 15:21:00,
2013-08-26 09:22:00,67.8,32.7,30.00,ESE,118,2.7,2.7,27,0.00,,---,0.00,VWS V14.01,2013-08-26 15:22:00,
2013-08-26 09:23:00,68.0,31.9,30.00,ESE,113,3.1,3.6,26,0.00,,---,0.00,VWS V14.01,2013-08-26 15:23:00,
2013-08-26 09:25:00,68.5,32.3,30.00,ESE,116,2.7,3.6,26,0.00,,---,0.00,VWS V14.01,2013-08-26 15:25:00,
2013-08-26 09:26:00,69.1,32.8,30.00,NNE,15,3.6,5.4,26,0.00,,---,0.00,VWS V14.01,2013-08-26 15:26:00,
2013-08-26 09:27:00,69.1,32.8,30.00,North,5,3.1,4.9,26,0.00,,---,0.00,VWS V14.01,2013-08-26 15:27:00,
2013-08-26 09:28:00,68.9,32.6,30.00,North,357,4.0,4.9,26,0.00,,---,0.00,VWS V14.01,2013-08-26 15:28:00,
2013-08-26 09:30:00,68.7,32.5,30.00,North,0,3.1,4.0,26,0.00,,---,0.00,VWS V14.01,2013-08-26 15:30:00,
2013-08-26 09:32:00,68.5,32.3,30.00,NNE,24,2.7,2.7,26,0.00,,---,0.00,VWS V14.01,2013-08-26 15:32:00,
2013-08-26 09:33:00,68.5,32.3,30.00,East,93,3.1,3.1,26,0.00,,---,0.00,VWS V14.01,2013-08-26 15:33:00,
2013-08-26 09:34:00,68.5,32.3,30.00,ESE,106,3.1,4.0,26,0.00,,---,0.00,VWS V14.01,2013-08-26 15:34:00,
2013-08-26 09:35:00,68.7,32.5,30.00,East,82,2.7,4.0,26,0.00,,---,0.00,VWS V14.01,2013-08-26 15:35:00,
2013-08-26 09:37:00,69.1,31.8,30.00,ENE,77,0.0,3.1,25,0.00,,---,0.00,VWS V14.01,2013-08-26 15:37:00,
2013-08-26 09:38:00,69.3,32.9,30.00,East,82,0.0,2.7,26,0.00,,---,0.00,VWS V14.01,2013-08-26 15:38:00,
2013-08-26 09:39:00,69.4,32.1,30.00,East,91,4.0,4.0,25,0.00,,---,0.00,VWS V14.01,2013-08-26 15:39:00,
2013-08-26 09:40:00,69.8,32.4,30.00,NE,51,0.0,3.1,25,0.00,,---,0.00,VWS V14.01,2013-08-26 15:40:00,
2013-08-26 09:42:00,70.0,32.6,30.00,North,0,3.6,3.6,25,0.00,,---,0.00,VWS V14.01,2013-08-26 15:42:00,
2013-08-26 09:43:00,70.0,32.6,30.00,North,0,2.7,3.6,25,0.00,,---,0.00,VWS V14.01,2013-08-26 15:43:00,
2013-08-26 09:44:00,70.0,32.6,30.00,NNE,24,4.0,4.9,25,0.00,,---,0.00,VWS V14.01,2013-08-26 15:44:00,
2013-08-26 09:45:00,69.6,32.3,30.00,North,357,4.9,4.9,25,0.00,,---,0.00,VWS V14.01,2013-08-26 15:45:00,
2013-08-26 09:47:00,69.3,32.0,30.00,North,5,3.6,4.0,25,0.00,,---,0.00,VWS V14.01,2013-08-26 15:47:00,
2013-08-26 09:48:00,69.3,32.9,30.00,North,11,3.6,4.0,26,0.00,,---,0.00,VWS V14.01,2013-08-26 15:48:00,
2013-08-26 09:49:00,69.1,32.8,30.00,North,4,4.5,4.5,26,0.00,,---,0.00,VWS V14.01,2013-08-26 15:49:00,
2013-08-26 09:51:00,68.9,32.6,30.00,North,11,4.0,4.0,26,0.00,,---,0.00,VWS V14.01,2013-08-26 15:51:00,
2013-08-26 09:53:00,68.9,32.6,30.00,North,11,3.1,3.6,26,0.00,,---,0.00,VWS V14.01,2013-08-26 15:53:00,
2013-08-26 09:54:00,69.1,32.8,30.00,ESE,109,0.0,3.6,26,0.00,,---,0.00,VWS V14.01,2013-08-26 15:54:00,
2013-08-26 09:56:00,69.8,32.4,30.00,East,93,0.0,0.0,25,0.00,,---,0.00,VWS V14.01,2013-08-26 15:56:00,
2013-08-26 09:58:00,70.5,33.0,30.00,ESE,112,2.7,3.1,25,0.00,,---,0.00,VWS V14.01,2013-08-26 15:58:00,
2013-08-26 09:59:00,71.1,33.5,30.00,North,357,3.6,4.5,25,0.00,,---,0.00,VWS V14.01,2013-08-26 15:59:00,
2013-08-26 10:01:00,71.1,33.5,30.00,NNE,15,0.0,0.0,25,0.00,,---,0.00,VWS V14.01,2013-08-26 16:01:00,
2013-08-26 10:03:00,71.1,33.5,30.00,NNE,23,4.9,4.9,25,0.00,,---,0.00,VWS V14.01,2013-08-26 16:03:00,
2013-08-26 10:04:00,71.1,32.5,30.00,North,7,4.0,4.0,24,0.00,,---,0.00,VWS V14.01,2013-08-26 16:04:00,
2013-08-26 10:07:00,70.7,32.2,30.00,NNE,24,3.1,3.6,24,0.00,,---,0.00,VWS V14.01,2013-08-26 16:07:00,
2013-08-26 10:08:00,70.7,33.2,30.00,NNE,14,4.0,4.0,25,0.00,,---,0.00,VWS V14.01,2013-08-26 16:08:00,
2013-08-26 10:09:00,70.5,33.0,30.00,NNE,17,3.6,4.0,25,0.00,,---,0.00,VWS V14.01,2013-08-26 16:09:00,
2013-08-26 10:10:00,70.5,33.0,30.00,East,97,3.6,3.6,25,0.00,,---,0.00,VWS V14.01,2013-08-26 16:10:00,
2013-08-26 10:12:00,70.9,33.3,30.00,ESE,119,3.1,3.6,25,0.00,,---,0.00,VWS V14.01,2013-08-26 16:12:00,
2013-08-26 10:13:00,71.2,33.6,30.00,NNE,19,3.6,3.6,25,0.00,,---,0.00,VWS V14.01,2013-08-26 16:13:00,
2013-08-26 10:14:00,71.4,33.8,30.00,North,0,3.6,4.0,25,0.00,,---,0.00,VWS V14.01,2013-08-26 16:14:00,
2013-08-26 10:15:00,71.6,32.9,30.00,East,86,3.1,4.0,24,0.00,,---,0.00,VWS V14.01,2013-08-26 16:15:00,
2013-08-26 10:17:00,72.1,33.4,30.00,SE,146,2.7,3.6,24,0.00,,---,0.00,VWS V14.01,2013-08-26 16:17:00,
2013-08-26 10:18:00,72.3,33.5,30.00,North,357,3.1,3.1,24,0.00,,---,0.00,VWS V14.01,2013-08-26 16:18:00,
2013-08-26 10:19:00,72.7,32.8,30.00,NNE,24,2.7,3.1,23,0.00,,---,0.00,VWS V14.01,2013-08-26 16:19:00,
2013-08-26 10:20:00,72.9,32.9,30.00,North,357,2.7,2.7,23,0.00,,---,0.00,VWS V14.01,2013-08-26 16:20:00,
2013-08-26 10:22:00,72.9,32.9,30.00,North,10,2.7,2.7,23,0.00,,---,0.00,VWS V14.01,2013-08-26 16:22:00,
2013-08-26 10:23:00,73.0,33.1,30.00,North,10,4.0,4.0,23,0.00,,---,0.00,VWS V14.01,2013-08-26 16:23:00,
2013-08-26 10:24:00,73.0,33.1,30.00,NNE,15,3.1,4.0,23,0.00,,---,0.00,VWS V14.01,2013-08-26 16:24:00,
2013-08-26 10:25:00,73.0,33.1,30.00,North,1,3.1,3.1,23,0.00,,---,0.00,VWS V14.01,2013-08-26 16:25:00,
2013-08-26 10:26:00,73.0,32.0,30.00,North,353,4.9,5.4,22,0.00,,---,0.00,VWS V14.01,2013-08-26 16:26:00,
2013-08-26 10:27:00,73.0,32.0,30.00,North,353,3.1,5.8,22,0.00,,---,0.00,VWS V14.01,2013-08-26 16:27:00,
2013-08-26 10:29:00,72.9,31.8,30.00,North,9,2.7,2.7,22,0.00,,---,0.00,VWS V14.01,2013-08-26 16:29:00,
2013-08-26 10:30:00,72.9,31.8,30.00,North,1,2.7,4.0,22,0.00,,---,0.00,VWS V14.01,2013-08-26 16:30:00,
2013-08-26 10:31:00,73.0,32.0,30.00,North,357,3.1,4.0,22,0.00,,---,0.00,VWS V14.01,2013-08-26 16:31:00,
2013-08-26 10:32:00,73.0,32.0,30.00,NNE,14,3.1,5.4,22,0.00,,---,0.00,VWS V14.01,2013-08-26 16:32:00,
2013-08-26 10:34:00,73.0,32.0,30.00,North,357,3.6,3.6,22,0.00,,---,0.00,VWS V14.01,2013-08-26 16:34:00,
2013-08-26 10:35:00,73.2,32.1,30.00,North,5,4.0,5.8,22,0.00,,---,0.00,VWS V14.01,2013-08-26 16:35:00,
2013-08-26 10:36:00,73.2,32.1,30.00,North,10,2.7,4.0,22,0.00,,---,0.00,VWS V14.01,2013-08-26 16:36:00,
2013-08-26 10:37:00,73.4,32.3,30.00,ENE,63,2.2,3.1,22,0.00,,---,0.00,VWS V14.01,2013-08-26 16:37:00,
2013-08-26 10:39:00,73.6,31.3,30.00,ENE,60,2.7,3.1,21,0.00,,---,0.00,VWS V14.01,2013-08-26 16:39:00,
2013-08-26 10:40:00,73.8,31.4,30.00,ENE,68,0.0,3.6,21,0.00,,---,0.00,VWS V14.01,2013-08-26 16:40:00,
2013-08-26 10:41:00,73.8,31.4,30.00,NNE,12,3.6,3.6,21,0.00,,---,0.00,VWS V14.01,2013-08-26 16:41:00,
2013-08-26 10:42:00,73.9,31.6,30.00,North,4,5.4,5.8,21,0.00,,---,0.00,VWS V14.01,2013-08-26 16:42:00,
2013-08-26 10:44:00,73.8,31.4,30.00,North,0,5.4,6.3,21,0.00,,---,0.00,VWS V14.01,2013-08-26 16:44:00,
2013-08-26 10:46:00,73.6,31.3,30.00,NNW,342,4.9,5.4,21,0.00,,---,0.00,VWS V14.01,2013-08-26 16:46:00,
2013-08-26 10:47:00,73.6,31.3,30.00,North,10,3.6,5.8,21,0.00,,---,0.00,VWS V14.01,2013-08-26 16:47:00,
2013-08-26 10:49:00,73.6,31.3,30.00,NNE,16,3.6,4.0,21,0.00,,---,0.00,VWS V14.01,2013-08-26 16:49:00,
2013-08-26 10:50:00,73.6,31.3,30.00,NNE,16,5.4,5.4,21,0.00,,---,0.00,VWS V14.01,2013-08-26 16:50:00,
2013-08-26 10:51:00,73.6,31.3,30.00,North,7,3.1,5.8,21,0.00,,---,0.00,VWS V14.01,2013-08-26 16:51:00,
2013-08-26 10:53:00,73.6,31.3,30.00,North,357,6.3,6.3,21,0.00,,---,0.00,VWS V14.01,2013-08-26 16:53:00,
2013-08-26 10:54:00,73.8,31.4,30.00,North,6,3.1,3.6,21,0.00,,---,0.00,VWS V14.01,2013-08-26 16:54:00,
2013-08-26 10:55:00,73.8,31.4,30.00,North,357,8.3,8.3,21,0.00,,---,0.00,VWS V14.01,2013-08-26 16:55:00,
2013-08-26 10:56:00,73.8,31.4,30.00,North,357,3.6,6.3,21,0.00,,---,0.00,VWS V14.01,2013-08-26 16:56:00,
2013-08-26 10:58:00,73.9,31.6,30.00,North,4,5.8,8.3,21,0.00,,---,0.00,VWS V14.01,2013-08-26 16:58:00,
2013-08-26 10:59:00,73.9,31.6,30.00,North,353,5.8,5.8,21,0.00,,---,0.00,VWS V14.01,2013-08-26 16:59:00,
2013-08-26 11:00:00,73.9,31.6,30.00,NNE,28,4.0,5.8,21,0.00,,---,0.00,VWS V14.01,2013-08-26 17:00:00,
2013-08-26 11:01:00,73.8,31.4,30.00,ENE,63,2.2,2.7,21,0.00,,---,0.00,VWS V14.01,2013-08-26 17:01:00,
2013-08-26 11:03:00,73.9,31.6,30.00,North,0,4.9,4.9,21,0.00,,---,0.00,VWS V14.01,2013-08-26 17:03:00,
2013-08-26 11:05:00,74.3,31.9,30.00,NNE,27,4.0,6.3,21,0.00,,---,0.00,VWS V14.01,2013-08-26 17:05:00,
2013-08-26 11:06:00,74.3,31.9,30.00,North,2,2.7,4.0,21,0.00,,---,0.00,VWS V14.01,2013-08-26 17:06:00,
2013-08-26 11:08:00,74.3,31.9,30.00,North,357,3.6,4.9,21,0.00,,---,0.00,VWS V14.01,2013-08-26 17:08:00,
2013-08-26 11:10:00,74.5,32.0,30.00,NNE,27,3.6,3.6,21,0.00,,---,0.00,VWS V14.01,2013-08-26 17:10:00,
2013-08-26 11:11:00,74.7,32.2,30.00,East,79,0.0,4.0,21,0.00,,---,0.00,VWS V14.01,2013-08-26 17:11:00,
2013-08-26 11:12:00,74.7,32.2,30.00,NNW,346,3.6,4.0,21,0.00,,---,0.00,VWS V14.01,2013-08-26 17:12:00,
2013-08-26 11:13:00,74.7,32.2,30.00,North,0,5.8,5.8,21,0.00,,---,0.00,VWS V14.01,2013-08-26 17:13:00,
2013-08-26 11:15:00,74.8,32.3,30.00,NNE,24,3.6,6.3,21,0.00,,---,0.00,VWS V14.01,2013-08-26 17:15:00,
2013-08-26 11:17:00,74.8,32.3,30.00,North,357,4.0,4.0,21,0.00,,---,0.00,VWS V14.01,2013-08-26 17:17:00,
2013-08-26 11:18:00,74.8,32.3,30.00,NNE,29,3.1,3.6,21,0.00,,---,0.00,VWS V14.01,2013-08-26 17:18:00,
2013-08-26 11:20:00,75.0,32.5,30.00,ESE,119,0.0,4.0,21,0.00,,---,0.00,VWS V14.01,2013-08-26 17:20:00,
2013-08-26 11:21:00,75.0,32.5,30.00,NNE,18,2.7,2.7,21,0.00,,---,0.00,VWS V14.01,2013-08-26 17:21:00,
2013-08-26 11:22:00,75.2,31.4,30.00,North,10,4.9,5.8,20,0.00,,---,0.00,VWS V14.01,2013-08-26 17:22:00,
2013-08-26 11:23:00,75.4,31.6,30.00,NNE,29,0.0,5.4,20,0.00,,---,0.00,VWS V14.01,2013-08-26 17:23:00,
2013-08-26 11:25:00,75.6,29.1,30.00,NE,44,0.0,4.0,18,0.00,,---,0.00,VWS V14.01,2013-08-26 17:25:00,
2013-08-26 11:26:00,75.6,29.1,30.00,North,357,0.0,2.7,18,0.00,,---,0.00,VWS V14.01,2013-08-26 17:26:00,
2013-08-26 11:28:00,75.7,31.9,30.00,NNE,16,4.0,4.0,20,0.00,,---,0.00,VWS V14.01,2013-08-26 17:28:00,
2013-08-26 11:29:00,75.7,31.9,30.00,NNE,15,4.0,5.4,20,0.00,,---,0.00,VWS V14.01,2013-08-26 17:29:00,
2013-08-26 11:30:00,75.7,29.3,30.00,North,8,3.6,4.5,18,0.00,,---,0.00,VWS V14.01,2013-08-26 17:30:00,
2013-08-26 11:31:00,75.7,29.3,30.00,North,11,4.9,5.8,18,0.00,,---,0.00,VWS V14.01,2013-08-26 17:31:00,
2013-08-26 11:33:00,75.7,29.3,30.00,NNE,20,3.1,3.6,18,0.00,,---,0.00,VWS V14.01,2013-08-26 17:33:00,
2013-08-26 11:34:00,75.7,29.3,30.00,WNW,293,3.1,3.6,18,0.00,,---,0.00,VWS V14.01,2013-08-26 17:34:00,
2013-08-26 11:36:00,75.9,29.4,30.00,SSW,201,5.4,5.4,18,0.00,,---,0.00,VWS V14.01,2013-08-26 17:36:00,
2013-08-26 11:37:00,76.1,29.6,30.00,SSW,202,5.4,5.4,18,0.00,,---,0.00,VWS V14.01,2013-08-26 17:37:00,
2013-08-26 11:38:00,76.1,29.6,30.00,SSW,203,3.1,4.5,18,0.00,,---,0.00,VWS V14.01,2013-08-26 17:38:00,
2013-08-26 11:39:00,76.1,29.6,30.00,SSW,203,0.0,3.1,18,0.00,,---,0.00,VWS V14.01,2013-08-26 17:39:00,
2013-08-26 11:41:00,76.5,29.9,30.00,North,0,4.9,4.9,18,0.00,,---,0.00,VWS V14.01,2013-08-26 17:41:00,
2013-08-26 11:42:00,76.8,30.1,30.00,North,357,3.1,4.0,18,0.00,,---,0.00,VWS V14.01,2013-08-26 17:42:00,
2013-08-26 11:43:00,77.0,25.9,30.00,North,0,6.3,6.3,15,0.00,,---,0.00,VWS V14.01,2013-08-26 17:43:00,
2013-08-26 11:44:00,77.0,25.9,30.00,NNW,345,3.6,6.3,15,0.00,,---,0.00,VWS V14.01,2013-08-26 17:44:00,
2013-08-26 11:46:00,77.2,30.4,30.00,NNE,18,3.6,5.8,18,0.00,,---,0.00,VWS V14.01,2013-08-26 17:46:00,
2013-08-26 11:47:00,77.2,26.0,30.00,NNE,14,3.1,4.0,15,0.00,,---,0.00,VWS V14.01,2013-08-26 17:47:00,
2013-08-26 11:48:00,77.4,26.1,30.00,North,0,5.4,6.3,15,0.00,,---,0.00,VWS V14.01,2013-08-26 17:48:00,
2013-08-26 11:49:00,77.4,26.1,30.00,North,3,2.7,5.4,15,0.00,,---,0.00,VWS V14.01,2013-08-26 17:49:00,
2013-08-26 11:51:00,77.5,30.7,30.00,North,353,3.1,3.1,18,0.00,,---,0.00,VWS V14.01,2013-08-26 17:51:00,
2013-08-26 11:53:00,78.1,26.7,30.00,NW,305,3.6,3.6,15,0.00,,---,0.00,VWS V14.01,2013-08-26 17:53:00,
2013-08-26 11:54:00,78.3,26.9,30.00,North,2,4.0,4.0,15,0.00,,---,0.00,VWS V14.01,2013-08-26 17:54:00,
2013-08-26 11:55:00,78.6,27.1,30.00,North,0,4.9,4.9,15,0.00,,---,0.00,VWS V14.01,2013-08-26 17:55:00,
2013-08-26 11:56:00,78.8,27.3,30.00,North,2,4.9,4.9,15,0.00,,---,0.00,VWS V14.01,2013-08-26 17:56:00,
2013-08-26 11:58:00,78.8,27.3,29.97,NNE,18,3.1,3.6,15,0.00,,---,0.00,VWS V14.01,2013-08-26 17:58:00,
2013-08-26 11:59:00,79.0,27.4,29.97,NNE,16,4.0,5.4,15,0.00,,---,0.00,VWS V14.01,2013-08-26 17:59:00,
2013-08-26 12:00:00,79.0,27.4,29.97,North,8,4.0,5.4,15,0.00,,---,0.00,VWS V14.01,2013-08-26 18:00:00,
2013-08-26 12:01:00,79.0,27.4,29.97,North,357,6.3,6.3,15,0.00,,---,0.00,VWS V14.01,2013-08-26 18:01:00,
2013-08-26 12:03:00,79.0,27.4,29.97,North,2,4.0,5.4,15,0.00,,---,0.00,VWS V14.01,2013-08-26 18:03:00,
2013-08-26 12:04:00,79.0,27.4,29.97,NNE,19,0.0,5.4,15,0.00,,---,0.00,VWS V14.01,2013-08-26 18:04:00,
2013-08-26 12:05:00,78.8,27.3,29.97,NW,308,3.6,3.6,15,0.00,,---,0.00,VWS V14.01,2013-08-26 18:05:00,
2013-08-26 12:06:00,78.8,27.3,29.97,NNE,23,3.1,4.5,15,0.00,,---,0.00,VWS V14.01,2013-08-26 18:06:00,
2013-08-26 12:08:00,79.0,27.4,29.97,NNE,29,3.6,4.0,15,0.00,,---,0.00,VWS V14.01,2013-08-26 18:08:00,
2013-08-26 12:09:00,79.3,27.7,29.97,ENE,75,0.0,3.1,15,0.00,,---,0.00,VWS V14.01,2013-08-26 18:09:00,
2013-08-26 12:10:00,79.3,27.7,29.97,East,93,2.7,3.1,15,0.00,,---,0.00,VWS V14.01,2013-08-26 18:10:00,
2013-08-26 12:11:00,79.7,28.0,29.97,ESE,102,2.7,4.9,15,0.00,,---,0.00,VWS V14.01,2013-08-26 18:11:00,
2013-08-26 12:13:00,80.2,28.4,29.97,NNE,27,3.1,4.0,15,0.00,,---,0.00,VWS V14.01,2013-08-26 18:13:00,
2013-08-26 12:14:00,80.4,23.2,29.97,ESE,105,4.0,4.0,12,0.00,,---,0.00,VWS V14.01,2013-08-26 18:14:00,
2013-08-26 12:15:00,80.4,23.2,29.97,SE,134,3.6,4.0,12,0.00,,---,0.00,VWS V14.01,2013-08-26 18:15:00,
2013-08-26 12:16:00,80.6,23.4,29.97,NNE,18,2.2,3.6,12,0.00,,---,0.00,VWS V14.01,2013-08-26 18:16:00,
2013-08-26 12:18:00,80.6,23.4,29.97,East,98,3.6,5.4,12,0.00,,---,0.00,VWS V14.01,2013-08-26 18:18:00,
2013-08-26 12:20:00,80.8,23.5,29.97,East,101,2.2,3.1,12,0.00,,---,0.00,VWS V14.01,2013-08-26 18:20:00,
2013-08-26 12:21:00,81.0,23.6,29.97,ESE,107,4.0,4.0,12,0.00,,---,0.00,VWS V14.01,2013-08-26 18:21:00,
2013-08-26 12:23:00,81.1,23.8,29.97,NE,34,3.1,4.0,12,0.00,,---,0.00,VWS V14.01,2013-08-26 18:23:00,
2013-08-26 12:25:00,81.1,23.8,29.97,ESE,109,5.8,5.8,12,0.00,,---,0.00,VWS V14.01,2013-08-26 18:25:00,
2013-08-26 12:26:00,81.1,23.8,29.97,North,357,6.3,6.3,12,0.00,,---,0.00,VWS V14.01,2013-08-26 18:26:00,
2013-08-26 12:27:00,81.1,23.8,29.97,NW,313,4.5,6.3,12,0.00,,---,0.00,VWS V14.01,2013-08-26 18:27:00,
2013-08-26 12:28:00,80.8,23.5,29.97,North,9,7.2,7.2,12,0.00,,---,0.00,VWS V14.01,2013-08-26 18:28:00,
2013-08-26 12:30:00,80.8,23.5,29.97,North,0,3.1,5.8,12,0.00,,---,0.00,VWS V14.01,2013-08-26 18:30:00,
2013-08-26 12:31:00,80.8,23.5,29.97,North,357,4.9,4.9,12,0.00,,---,0.00,VWS V14.01,2013-08-26 18:31:00,
2013-08-26 12:32:00,80.8,23.5,29.97,North,9,3.6,4.9,12,0.00,,---,0.00,VWS V14.01,2013-08-26 18:32:00,
2013-08-26 12:33:00,80.6,23.4,29.97,North,6,3.1,4.0,12,0.00,,---,0.00,VWS V14.01,2013-08-26 18:33:00,
2013-08-26 12:35:00,80.8,23.5,29.97,NE,51,0.0,3.1,12,0.00,,---,0.00,VWS V14.01,2013-08-26 18:35:00,
2013-08-26 12:36:00,81.0,23.6,29.97,SE,126,3.6,4.0,12,0.00,,---,0.00,VWS V14.01,2013-08-26 18:36:00,
2013-08-26 12:37:00,81.1,23.8,29.97,ENE,68,2.2,4.0,12,0.00,,---,0.00,VWS V14.01,2013-08-26 18:37:00,
2013-08-26 12:38:00,81.5,24.0,29.97,NNE,15,3.1,4.0,12,0.00,,---,0.00,VWS V14.01,2013-08-26 18:38:00,
2013-08-26 12:40:00,81.7,24.2,29.97,SE,131,4.0,4.9,12,0.00,,---,0.00,VWS V14.01,2013-08-26 18:40:00,
2013-08-26 12:41:00,81.9,24.3,29.97,ESE,104,3.1,4.0,12,0.00,,---,0.00,VWS V14.01,2013-08-26 18:41:00,
2013-08-26 12:42:00,81.9,24.3,29.97,SE,142,3.1,4.0,12,0.00,,---,0.00,VWS V14.01,2013-08-26 18:42:00,
2013-08-26 12:44:00,82.2,24.6,29.97,ESE,118,2.7,3.6,12,0.00,,---,0.00,VWS V14.01,2013-08-26 18:44:00,
2013-08-26 12:45:00,82.4,22.7,29.97,ESE,118,0.0,0.0,11,0.00,,---,0.00,VWS V14.01,2013-08-26 18:45:00,
2013-08-26 12:46:00,82.6,22.8,29.97,East,95,2.2,2.2,11,0.00,,---,0.00,VWS V14.01,2013-08-26 18:46:00,
2013-08-26 12:47:00,82.8,23.0,29.97,SE,142,3.6,4.9,11,0.00,,---,0.00,VWS V14.01,2013-08-26 18:47:00,
2013-08-26 12:49:00,82.9,23.1,29.97,East,90,2.7,3.1,11,0.00,,---,0.00,VWS V14.01,2013-08-26 18:49:00,
2013-08-26 12:50:00,82.9,23.1,29.97,NNE,19,3.6,3.6,11,0.00,,---,0.00,VWS V14.01,2013-08-26 18:50:00,
2013-08-26 12:51:00,82.9,23.1,29.97,North,7,2.7,3.6,11,0.00,,---,0.00,VWS V14.01,2013-08-26 18:51:00,
2013-08-26 12:52:00,83.1,23.2,29.97,ESE,105,3.6,5.4,11,0.00,,---,0.00,VWS V14.01,2013-08-26 18:52:00,
2013-08-26 12:54:00,82.9,23.1,29.97,SE,125,4.0,5.8,11,0.00,,---,0.00,VWS V14.01,2013-08-26 18:54:00,
2013-08-26 12:55:00,82.9,23.1,29.97,ESE,115,5.4,5.4,11,0.00,,---,0.00,VWS V14.01,2013-08-26 18:55:00,
2013-08-26 12:56:00,82.9,23.1,29.97,ESE,114,4.0,5.4,11,0.00,,---,0.00,VWS V14.01,2013-08-26 18:56:00,
2013-08-26 12:57:00,82.9,23.1,29.97,ESE,118,3.1,5.4,11,0.00,,---,0.00,VWS V14.01,2013-08-26 18:57:00,
2013-08-26 13:00:00,82.9,23.1,29.97,ESE,108,3.6,3.6,11,0.00,,---,0.00,VWS V14.01,2013-08-26 19:00:00,
2013-08-26 13:01:00,83.1,23.2,29.97,NNE,19,4.9,4.9,11,0.00,,---,0.00,VWS V14.01,2013-08-26 19:01:00,
2013-08-26 13:02:00,83.1,23.2,29.97,NNE,21,2.7,4.9,11,0.00,,---,0.00,VWS V14.01,2013-08-26 19:02:00,
2013-08-26 13:05:00,83.7,23.6,29.97,East,91,2.7,4.9,11,0.00,,---,0.00,VWS V14.01,2013-08-26 19:05:00,
2013-08-26 13:06:00,83.7,23.6,29.97,East,80,2.2,2.7,11,0.00,,---,0.00,VWS V14.01,2013-08-26 19:06:00,
2013-08-26 13:07:00,83.7,23.6,29.97,ENE,63,3.1,5.8,11,0.00,,---,0.00,VWS V14.01,2013-08-26 19:07:00,
2013-08-26 13:10:00,83.5,18.8,29.97,NE,37,3.1,6.3,9,0.00,,---,0.00,VWS V14.01,2013-08-26 19:10:00,
2013-08-26 13:11:00,83.5,23.5,29.97,NNW,341,3.6,4.0,11,0.00,,---,0.00,VWS V14.01,2013-08-26 19:11:00,
2013-08-26 13:12:00,83.1,23.2,29.97,North,9,4.0,4.0,11,0.00,,---,0.00,VWS V14.01,2013-08-26 19:12:00,
2013-08-26 13:15:00,82.6,22.8,29.97,NNE,14,4.9,4.9,11,0.00,,---,0.00,VWS V14.01,2013-08-26 19:15:00,
2013-08-26 13:16:00,82.6,22.8,29.97,North,1,4.0,4.9,11,0.00,,---,0.00,VWS V14.01,2013-08-26 19:16:00,
2013-08-26 13:17:00,82.6,22.8,29.97,NE,44,0.0,4.0,11,0.00,,---,0.00,VWS V14.01,2013-08-26 19:17:00,
2013-08-26 13:18:00,82.6,22.8,29.97,South,172,4.0,4.0,11,0.00,,---,0.00,VWS V14.01,2013-08-26 19:18:00,
2013-08-26 13:21:00,83.1,23.2,29.97,ESE,117,2.7,4.0,11,0.00,,---,0.00,VWS V14.01,2013-08-26 19:21:00,
2013-08-26 13:22:00,83.3,23.4,29.97,East,100,4.9,4.9,11,0.00,,---,0.00,VWS V14.01,2013-08-26 19:22:00,
2013-08-26 13:23:00,83.5,23.5,29.97,SE,124,3.6,5.4,11,0.00,,---,0.00,VWS V14.01,2013-08-26 19:23:00,
2013-08-26 13:26:00,83.7,23.6,29.97,SE,139,5.4,6.3,11,0.00,,---,0.00,VWS V14.01,2013-08-26 19:26:00,
2013-08-26 13:27:00,83.5,23.5,29.97,SE,131,6.3,6.3,11,0.00,,---,0.00,VWS V14.01,2013-08-26 19:27:00,
2013-08-26 13:28:00,83.3,23.4,29.97,East,97,5.8,6.7,11,0.00,,---,0.00,VWS V14.01,2013-08-26 19:28:00,
2013-08-26 13:31:00,82.8,23.0,29.97,SE,125,2.7,4.0,11,0.00,,---,0.00,VWS V14.01,2013-08-26 19:31:00,
2013-08-26 13:32:00,82.6,22.8,29.97,East,85,0.0,2.2,11,0.00,,---,0.00,VWS V14.01,2013-08-26 19:32:00,
2013-08-26 13:33:00,82.4,22.7,29.97,SE,143,0.0,2.2,11,0.00,,---,0.00,VWS V14.01,2013-08-26 19:33:00,
2013-08-26 13:36:00,81.7,24.2,29.97,SE,139,2.7,3.6,12,0.00,,---,0.00,VWS V14.01,2013-08-26 19:36:00,
2013-08-26 13:37:00,81.3,23.9,29.97,SSW,192,2.2,3.1,12,0.00,,---,0.00,VWS V14.01,2013-08-26 19:37:00,
2013-08-26 13:38:00,81.3,23.9,29.97,SSW,192,0.0,3.1,12,0.00,,---,0.00,VWS V14.01,2013-08-26 19:38:00,
2013-08-26 13:41:00,80.6,16.6,29.97,SSW,203,4.0,5.4,9,0.00,,---,0.00,VWS V14.01,2013-08-26 19:41:00,
2013-08-26 13:42:00,80.6,16.6,29.97,South,180,4.0,4.0,9,0.00,,---,0.00,VWS V14.01,2013-08-26 19:42:00,
2013-08-26 13:43:00,80.6,16.6,29.97,South,190,5.8,5.8,9,0.00,,---,0.00,VWS V14.01,2013-08-26 19:43:00,
2013-08-26 13:46:00,80.8,16.7,29.97,SSW,198,6.3,8.3,9,0.00,,---,0.00,VWS V14.01,2013-08-26 19:46:00,
2013-08-26 13:47:00,80.8,16.7,29.97,SSE,155,5.8,7.2,9,0.00,,---,0.00,VWS V14.01,2013-08-26 19:47:00,
2013-08-26 13:48:00,80.8,16.7,29.97,SSW,204,6.3,6.3,9,0.00,,---,0.00,VWS V14.01,2013-08-26 19:48:00,
2013-08-26 13:49:00,81.0,16.9,29.97,SSW,206,6.3,6.3,9,0.00,,---,0.00,VWS V14.01,2013-08-26 19:49:00,
2013-08-26 13:51:00,81.0,16.9,29.97,SW,227,5.4,8.1,9,0.00,,---,0.00,VWS V14.01,2013-08-26 19:51:00,
2013-08-26 13:52:00,81.0,16.9,29.97,WSW,244,3.6,7.6,9,0.00,,---,0.00,VWS V14.01,2013-08-26 19:52:00,
2013-08-26 13:53:00,81.1,17.0,29.97,South,191,8.3,8.3,9,0.00,,---,0.00,VWS V14.01,2013-08-26 19:53:00,
2013-08-26 13:54:00,81.1,17.0,29.97,SW,216,6.3,8.3,9,0.00,,---,0.00,VWS V14.01,2013-08-26 19:54:00,
2013-08-26 13:57:00,81.1,17.0,29.97,WNW,288,6.3,7.2,9,0.00,,---,0.00,VWS V14.01,2013-08-26 19:57:00,
2013-08-26 13:58:00,81.1,17.0,29.97,WNW,291,5.4,8.3,9,0.00,,---,0.00,VWS V14.01,2013-08-26 19:58:00,
2013-08-26 13:59:00,81.0,16.9,29.94,North,0,6.3,6.3,9,0.00,,---,0.00,VWS V14.01,2013-08-26 19:59:00,
2013-08-26 14:02:00,80.1,18.6,29.94,North,4,11.0,11.0,10,0.00,,---,0.00,VWS V14.01,2013-08-26 20:02:00,
2013-08-26 14:03:00,80.1,18.6,29.94,North,353,5.4,7.6,10,0.00,,---,0.00,VWS V14.01,2013-08-26 20:03:00,
2013-08-26 14:04:00,79.7,22.6,29.94,NNW,343,8.3,8.3,12,0.00,,---,0.00,VWS V14.01,2013-08-26 20:04:00,
2013-08-26 14:07:00,79.2,22.2,29.94,North,357,5.4,8.1,12,0.00,,---,0.00,VWS V14.01,2013-08-26 20:07:00,
2013-08-26 14:08:00,79.0,22.1,29.94,NNE,22,8.1,8.7,12,0.00,,---,0.00,VWS V14.01,2013-08-26 20:08:00,
2013-08-26 14:09:00,79.0,22.1,29.94,North,10,5.4,8.1,12,0.00,,---,0.00,VWS V14.01,2013-08-26 20:09:00,
2013-08-26 14:12:00,79.0,22.1,29.94,NE,44,0.0,4.0,12,0.00,,---,0.00,VWS V14.01,2013-08-26 20:12:00,
2013-08-26 14:13:00,79.3,22.4,29.94,NNW,337,5.8,5.8,12,0.00,,---,0.00,VWS V14.01,2013-08-26 20:13:00,
2013-08-26 14:14:00,79.3,22.4,29.94,NNW,329,3.6,5.8,12,0.00,,---,0.00,VWS V14.01,2013-08-26 20:14:00,
2013-08-26 14:17:00,80.8,23.5,29.94,North,7,4.0,5.4,12,0.00,,---,0.00,VWS V14.01,2013-08-26 20:17:00,
2013-08-26 14:18:00,81.1,23.8,29.94,North,0,2.7,4.5,12,0.00,,---,0.00,VWS V14.01,2013-08-26 20:18:00,
2013-08-26 14:19:00,81.5,24.0,29.94,WSW,250,5.8,5.8,12,0.00,,---,0.00,VWS V14.01,2013-08-26 20:19:00,
2013-08-26 14:22:00,82.0,17.7,29.94,SSW,202,7.2,8.7,9,0.00,,---,0.00,VWS V14.01,2013-08-26 20:22:00,
2013-08-26 14:23:00,82.0,17.7,29.94,South,178,6.3,8.3,9,0.00,,---,0.00,VWS V14.01,2013-08-26 20:23:00,
2013-08-26 14:24:00,81.9,17.6,29.94,South,186,4.5,6.3,9,0.00,,---,0.00,VWS V14.01,2013-08-26 20:24:00,
2013-08-26 14:28:00,81.5,17.3,29.94,WSW,249,4.0,4.9,9,0.00,,---,0.00,VWS V14.01,2013-08-26 20:28:00,
2013-08-26 14:29:00,81.5,17.3,29.94,WSW,251,3.1,3.6,9,0.00,,---,0.00,VWS V14.01,2013-08-26 20:29:00,
2013-08-26 14:33:00,81.9,17.6,29.94,North,349,4.9,4.9,9,0.00,,---,0.00,VWS V14.01,2013-08-26 20:33:00,
2013-08-26 14:34:00,81.9,17.6,29.94,North,353,3.1,4.9,9,0.00,,---,0.00,VWS V14.01,2013-08-26 20:34:00,
2013-08-26 14:38:00,82.2,17.8,29.94,NW,325,0.0,0.0,9,0.00,,---,0.00,VWS V14.01,2013-08-26 20:38:00,
2013-08-26 14:39:00,82.4,18.0,29.94,NW,315,3.1,3.6,9,0.00,,---,0.00,VWS V14.01,2013-08-26 20:39:00,
2013-08-26 14:40:00,82.8,18.2,29.94,WNW,302,2.2,3.1,9,0.00,,---,0.00,VWS V14.01,2013-08-26 20:40:00,
2013-08-26 14:43:00,82.8,18.2,29.94,NW,315,4.0,4.5,9,0.00,,---,0.00,VWS V14.01,2013-08-26 20:43:00,
2013-08-26 14:44:00,82.6,18.1,29.97,North,357,6.3,6.3,9,0.00,,---,0.00,VWS V14.01,2013-08-26 20:44:00,
2013-08-26 14:45:00,82.4,18.0,29.97,North,357,6.3,6.3,9,0.00,,---,0.00,VWS V14.01,2013-08-26 20:45:00,
2013-08-26 14:48:00,81.0,16.9,29.97,NW,316,5.8,7.6,9,0.00,,---,0.00,VWS V14.01,2013-08-26 20:48:00,
2013-08-26 14:49:00,80.2,18.8,29.97,North,357,11.4,11.4,10,0.00,,---,0.00,VWS V14.01,2013-08-26 20:49:00,
2013-08-26 14:50:00,79.9,18.5,29.97,NNW,348,9.6,13.6,10,0.00,,---,0.00,VWS V14.01,2013-08-26 20:50:00,
2013-08-26 14:53:00,78.1,17.1,29.97,NW,316,3.6,5.4,10,0.00,,---,0.00,VWS V14.01,2013-08-26 20:53:00,
2013-08-26 14:54:00,77.5,16.7,29.97,NNW,330,3.1,4.0,10,0.00,,---,0.00,VWS V14.01,2013-08-26 20:54:00,
2013-08-26 14:55:00,77.5,16.7,29.97,NNW,331,3.6,4.0,10,0.00,,---,0.00,VWS V14.01,2013-08-26 20:55:00,
2013-08-26 14:58:00,76.5,15.9,29.97,WNW,295,2.2,2.7,10,0.00,,---,0.00,VWS V14.01,2013-08-26 20:58:00,
2013-08-26 14:59:00,76.5,15.9,29.97,WNW,295,2.2,2.7,10,0.00,,---,0.00,VWS V14.01,2013-08-26 20:59:00,
2013-08-26 15:00:00,76.3,15.8,29.97,WNW,303,5.8,5.8,10,0.00,,---,0.00,VWS V14.01,2013-08-26 21:00:00,
2013-08-26 15:03:00,75.4,15.1,29.97,West,277,2.7,6.3,10,0.00,,---,0.00,VWS V14.01,2013-08-26 21:03:00,
2013-08-26 15:05:00,75.0,17.0,29.97,West,264,3.6,6.3,11,0.00,,---,0.00,VWS V14.01,2013-08-26 21:05:00,
2013-08-26 15:08:00,73.6,19.8,29.97,WSW,245,4.9,5.8,13,0.00,,---,0.00,VWS V14.01,2013-08-26 21:08:00,
2013-08-26 15:10:00,73.4,19.6,29.97,SSW,205,7.2,7.6,13,0.00,,---,0.00,VWS V14.01,2013-08-26 21:10:00,
2013-08-26 15:13:00,71.8,29.8,30.00,South,179,6.3,6.3,21,0.00,,---,0.00,VWS V14.01,2013-08-26 21:13:00,
2013-08-26 15:15:00,71.2,31.6,30.00,SW,223,4.9,4.9,23,0.00,,---,0.00,VWS V14.01,2013-08-26 21:15:00,
2013-08-26 15:18:00,69.4,39.9,30.00,West,265,3.1,4.0,34,0.00,,---,0.00,VWS V14.01,2013-08-26 21:18:00,
2013-08-26 15:20:00,68.9,40.9,30.00,West,272,4.0,4.0,36,0.00,,---,0.00,VWS V14.01,2013-08-26 21:20:00,
2013-08-26 15:24:00,67.3,40.1,30.00,SW,219,3.6,4.0,37,0.00,,---,0.00,VWS V14.01,2013-08-26 21:24:00,
2013-08-26 15:25:00,67.1,39.3,30.00,SSW,208,3.1,3.6,36,0.00,,---,0.00,VWS V14.01,2013-08-26 21:25:00,
2013-08-26 15:29:00,67.5,45.4,29.97,South,174,2.7,3.1,45,0.00,,---,0.00,VWS V14.01,2013-08-26 21:29:00,
2013-08-26 15:30:00,67.3,45.8,29.97,South,190,5.4,5.4,46,0.00,,---,0.00,VWS V14.01,2013-08-26 21:30:00,
2013-08-26 15:31:00,67.3,45.2,29.97,South,173,5.4,5.4,45,0.00,,---,0.00,VWS V14.01,2013-08-26 21:31:00,
2013-08-26 15:34:00,66.7,41.0,29.97,SSW,196,10.1,10.1,39,0.00,,---,0.00,VWS V14.01,2013-08-26 21:34:00,
2013-08-26 15:35:00,66.6,39.5,29.97,SSW,203,8.3,12.3,37,0.00,,---,0.00,VWS V14.01,2013-08-26 21:35:00,
2013-08-26 15:36:00,66.6,39.5,29.97,SSW,210,8.1,8.3,37,0.00,,---,0.00,VWS V14.01,2013-08-26 21:36:00,
2013-08-26 15:39:00,66.4,40.0,29.97,SSW,199,6.3,8.1,38,0.00,,---,0.00,VWS V14.01,2013-08-26 21:39:00,
2013-08-26 15:40:00,66.4,40.7,29.97,SSW,203,6.3,8.1,39,0.00,,---,0.00,VWS V14.01,2013-08-26 21:40:00,
2013-08-26 15:41:00,66.4,40.7,29.97,SSW,206,5.4,6.3,39,0.00,,---,0.00,VWS V14.01,2013-08-26 21:41:00,
2013-08-26 15:44:00,66.2,39.9,30.00,SSW,205,3.6,5.8,38,0.00,,---,0.00,VWS V14.01,2013-08-26 21:44:00,
2013-08-26 15:45:00,66.2,38.5,30.00,South,182,4.0,5.8,36,0.00,,---,0.00,VWS V14.01,2013-08-26 21:45:00,
2013-08-26 15:46:00,66.2,38.5,30.00,SSW,199,7.6,7.6,36,0.00,,---,0.00,VWS V14.01,2013-08-26 21:46:00,
2013-08-26 15:49:00,66.2,43.1,30.00,SSW,207,5.4,5.4,43,0.00,,---,0.00,VWS V14.01,2013-08-26 21:49:00,
2013-08-26 15:50:00,66.2,42.5,30.00,SW,221,2.2,3.1,42,0.00,,---,0.00,VWS V14.01,2013-08-26 21:50:00,
2013-08-26 15:51:00,66.2,43.1,30.00,SW,221,2.7,3.1,43,0.00,,---,0.00,VWS V14.01,2013-08-26 21:51:00,
2013-08-26 15:54:00,66.0,43.5,30.00,SW,232,0.0,0.0,44,0.00,,---,0.00,VWS V14.01,2013-08-26 21:54:00,
2013-08-26 15:55:00,66.0,42.3,30.00,SW,232,2.7,2.7,42,0.00,,---,0.00,VWS V14.01,2013-08-26 21:55:00,
2013-08-26 15:56:00,66.0,42.3,30.00,SW,232,2.2,2.7,42,0.00,,---,0.00,VWS V14.01,2013-08-26 21:56:00,
2013-08-26 15:59:00,67.3,41.5,29.97,SSE,163,2.7,3.1,39,0.00,,---,0.00,VWS V14.01,2013-08-26 21:59:00,
2013-08-26 16:01:00,68.0,44.7,29.97,SE,144,2.7,3.6,43,0.00,,---,0.00,VWS V14.01,2013-08-26 22:01:00,
2013-08-26 16:04:00,69.4,46.6,29.97,South,191,4.0,4.0,44,0.00,,---,0.00,VWS V14.01,2013-08-26 22:04:00,
2013-08-26 16:06:00,69.6,46.8,29.97,South,177,3.1,4.0,44,0.00,,---,0.00,VWS V14.01,2013-08-26 22:06:00,
2013-08-26 16:09:00,70.0,41.8,29.97,South,174,3.1,4.0,36,0.00,,---,0.00,VWS V14.01,2013-08-26 22:09:00,
2013-08-26 16:11:00,70.3,41.4,29.97,SSW,203,3.6,4.9,35,0.00,,---,0.00,VWS V14.01,2013-08-26 22:11:00,
2013-08-26 16:12:00,70.3,41.4,29.97,SSW,198,3.6,4.9,35,0.00,,---,0.00,VWS V14.01,2013-08-26 22:12:00,
2013-08-26 16:15:00,70.9,41.1,29.97,SSW,195,2.7,4.0,34,0.00,,---,0.00,VWS V14.01,2013-08-26 22:15:00,
2013-08-26 16:16:00,71.1,42.8,29.97,SSE,164,2.7,2.7,36,0.00,,---,0.00,VWS V14.01,2013-08-26 22:16:00,
2013-08-26 16:17:00,71.2,42.9,29.97,South,187,2.7,2.7,36,0.00,,---,0.00,VWS V14.01,2013-08-26 22:17:00,
2013-08-26 16:20:00,72.0,40.5,29.97,SSW,198,2.2,4.0,32,0.00,,---,0.00,VWS V14.01,2013-08-26 22:20:00,
2013-08-26 16:21:00,72.3,40.8,29.97,SSE,159,2.7,2.7,32,0.00,,---,0.00,VWS V14.01,2013-08-26 22:21:00,
2013-08-26 16:22:00,72.3,40.8,29.97,South,171,2.7,2.7,32,0.00,,---,0.00,VWS V14.01,2013-08-26 22:22:00,
2013-08-26 16:25:00,72.9,40.5,29.97,South,181,3.1,3.1,31,0.00,,---,0.00,VWS V14.01,2013-08-26 22:25:00,
2013-08-26 16:26:00,73.2,41.6,29.97,South,174,2.2,3.1,32,0.00,,---,0.00,VWS V14.01,2013-08-26 22:26:00,
2013-08-26 16:27:00,73.6,40.3,29.97,South,186,3.1,3.1,30,0.00,,---,0.00,VWS V14.01,2013-08-26 22:27:00,
2013-08-26 16:30:00,74.5,40.2,29.94,SSE,161,2.7,2.7,29,0.00,,---,0.00,VWS V14.01,2013-08-26 22:30:00,
2013-08-26 16:31:00,74.7,37.5,29.94,South,181,3.6,3.6,26,0.00,,---,0.00,VWS V14.01,2013-08-26 22:31:00,
2013-08-26 16:32:00,74.8,37.7,29.94,SSW,196,3.1,3.6,26,0.00,,---,0.00,VWS V14.01,2013-08-26 22:32:00,
2013-08-26 16:33:00,75.0,37.8,29.94,SSW,196,3.1,3.1,26,0.00,,---,0.00,VWS V14.01,2013-08-26 22:33:00,
2013-08-26 16:35:00,75.6,36.3,29.94,South,182,0.0,2.7,24,0.00,,---,0.00,VWS V14.01,2013-08-26 22:35:00,
2013-08-26 16:36:00,75.9,37.6,29.94,South,177,2.2,2.7,25,0.00,,---,0.00,VWS V14.01,2013-08-26 22:36:00,
2013-08-26 16:37:00,76.1,37.8,29.94,South,177,0.0,2.2,25,0.00,,---,0.00,VWS V14.01,2013-08-26 22:37:00,
2013-08-26 16:38:00,76.1,36.7,29.94,South,177,2.2,2.2,24,0.00,,---,0.00,VWS V14.01,2013-08-26 22:38:00,
2013-08-26 16:40:00,76.6,36.1,29.94,SSE,153,0.0,2.7,23,0.00,,---,0.00,VWS V14.01,2013-08-26 22:40:00,
2013-08-26 16:41:00,77.0,35.3,29.94,SSE,153,0.0,0.0,22,0.00,,---,0.00,VWS V14.01,2013-08-26 22:41:00,
2013-08-26 16:42:00,77.2,35.4,29.94,SSE,153,0.0,0.0,22,0.00,,---,0.00,VWS V14.01,2013-08-26 22:42:00,
2013-08-26 16:43:00,77.4,35.6,29.94,South,172,2.2,2.7,22,0.00,,---,0.00,VWS V14.01,2013-08-26 22:43:00,
2013-08-26 16:45:00,77.7,35.9,29.94,SE,140,0.0,3.6,22,0.00,,---,0.00,VWS V14.01,2013-08-26 22:45:00,
2013-08-26 16:47:00,78.1,35.0,29.94,SE,125,3.1,3.6,21,0.00,,---,0.00,VWS V14.01,2013-08-26 22:47:00,
2013-08-26 16:48:00,78.3,35.2,29.94,ESE,122,3.1,4.0,21,0.00,,---,0.00,VWS V14.01,2013-08-26 22:48:00,
2013-08-26 16:49:00,78.4,35.3,29.94,SE,136,3.1,3.1,21,0.00,,---,0.00,VWS V14.01,2013-08-26 22:49:00,
2013-08-26 16:50:00,79.0,34.5,29.94,SE,143,2.7,3.6,20,0.00,,---,0.00,VWS V14.01,2013-08-26 22:50:00,
2013-08-26 16:52:00,79.0,34.5,29.94,SSE,158,3.1,3.1,20,0.00,,---,0.00,VWS V14.01,2013-08-26 22:52:00,
2013-08-26 16:53:00,79.5,30.9,29.94,South,185,5.4,5.4,17,0.00,,---,0.00,VWS V14.01,2013-08-26 22:53:00,
2013-08-26 16:54:00,79.5,30.9,29.94,South,171,3.1,3.6,17,0.00,,---,0.00,VWS V14.01,2013-08-26 22:54:00,
2013-08-26 16:56:00,79.9,31.2,29.94,SSE,163,3.1,5.4,17,0.00,,---,0.00,VWS V14.01,2013-08-26 22:56:00,
2013-08-26 16:57:00,80.2,28.4,29.94,SW,226,8.7,8.7,15,0.00,,---,0.00,VWS V14.01,2013-08-26 22:57:00,
2013-08-26 16:58:00,80.4,23.2,29.94,SSW,201,7.6,9.2,12,0.00,,---,0.00,VWS V14.01,2013-08-26 22:58:00,
2013-08-26 16:59:00,80.4,23.2,29.97,SSW,209,8.7,10.5,12,0.00,,---,0.00,VWS V14.01,2013-08-26 22:59:00,
2013-08-26 17:01:00,80.4,23.2,29.97,SSW,196,8.1,10.1,12,0.00,,---,0.00,VWS V14.01,2013-08-26 23:01:00,
2013-08-26 17:02:00,80.4,23.2,29.97,South,182,12.8,12.8,12,0.00,,---,0.00,VWS V14.01,2013-08-26 23:02:00,
2013-08-26 17:03:00,80.2,18.8,29.97,SSW,206,5.8,10.5,10,0.00,,---,0.00,VWS V14.01,2013-08-26 23:03:00,
2013-08-26 17:04:00,80.2,18.8,29.97,SSW,196,10.1,11.0,10,0.00,,---,0.00,VWS V14.01,2013-08-26 23:04:00,
2013-08-26 17:06:00,79.9,18.5,29.97,SSW,213,8.7,12.8,10,0.00,,---,0.00,VWS V14.01,2013-08-26 23:06:00,
2013-08-26 17:07:00,79.9,22.8,29.97,SSW,209,8.7,8.7,12,0.00,,---,0.00,VWS V14.01,2013-08-26 23:07:00,
2013-08-26 17:08:00,79.7,18.4,29.97,SSW,202,6.7,8.3,10,0.00,,---,0.00,VWS V14.01,2013-08-26 23:08:00,
2013-08-26 17:09:00,79.5,18.2,29.97,SSE,151,6.3,8.3,10,0.00,,---,0.00,VWS V14.01,2013-08-26 23:09:00,
2013-08-26 17:11:00,79.2,18.0,29.97,South,189,6.3,8.1,10,0.00,,---,0.00,VWS V14.01,2013-08-26 23:11:00,
2013-08-26 17:12:00,79.2,18.0,29.97,South,189,8.7,8.7,10,0.00,,---,0.00,VWS V14.01,2013-08-26 23:12:00,
2013-08-26 17:13:00,79.0,17.8,29.97,South,181,5.8,8.3,10,0.00,,---,0.00,VWS V14.01,2013-08-26 23:13:00,
2013-08-26 17:14:00,79.0,17.8,29.97,SSW,210,7.2,8.3,10,0.00,,---,0.00,VWS V14.01,2013-08-26 23:14:00,
2013-08-26 17:16:00,78.8,17.7,29.97,SSW,202,9.6,9.6,10,0.00,,---,0.00,VWS V14.01,2013-08-26 23:16:00,
2013-08-26 17:17:00,78.6,17.5,29.97,SSW,194,5.8,5.8,10,0.00,,---,0.00,VWS V14.01,2013-08-26 23:17:00,
2013-08-26 17:18:00,78.6,17.5,29.97,SSW,207,8.7,8.7,10,0.00,,---,0.00,VWS V14.01,2013-08-26 23:18:00,
2013-08-26 17:19:00,78.6,17.5,29.97,SSW,207,7.6,8.7,10,0.00,,---,0.00,VWS V14.01,2013-08-26 23:19:00,
2013-08-26 17:21:00,78.4,17.4,29.97,SSW,198,7.6,8.7,10,0.00,,---,0.00,VWS V14.01,2013-08-26 23:21:00,
2013-08-26 17:23:00,78.4,17.4,29.97,SSW,200,6.3,7.6,10,0.00,,---,0.00,VWS V14.01,2013-08-26 23:23:00,
2013-08-26 17:24:00,78.4,17.4,29.97,South,190,4.0,5.8,10,0.00,,---,0.00,VWS V14.01,2013-08-26 23:24:00,
2013-08-26 17:26:00,78.4,17.4,29.97,SSW,200,5.8,5.8,10,0.00,,---,0.00,VWS V14.01,2013-08-26 23:26:00,
2013-08-26 17:28:00,78.4,17.4,29.97,SSW,198,5.8,6.3,10,0.00,,---,0.00,VWS V14.01,2013-08-26 23:28:00,
2013-08-26 17:29:00,78.6,17.5,29.94,SSW,204,5.8,7.6,10,0.00,,---,0.00,VWS V14.01,2013-08-26 23:29:00,
2013-08-26 17:30:00,78.8,17.7,29.94,South,187,5.4,5.8,10,0.00,,---,0.00,VWS V14.01,2013-08-26 23:30:00,
2013-08-26 17:32:00,79.2,18.0,29.94,SSW,196,6.3,6.3,10,0.00,,---,0.00,VWS V14.01,2013-08-26 23:32:00,
2013-08-26 17:33:00,79.7,18.4,29.94,SSW,193,6.3,8.7,10,0.00,,---,0.00,VWS V14.01,2013-08-26 23:33:00,
2013-08-26 17:34:00,79.9,18.5,29.94,SSW,210,5.8,7.6,10,0.00,,---,0.00,VWS V14.01,2013-08-26 23:34:00,
2013-08-26 17:35:00,80.1,18.6,29.94,SSE,154,4.0,8.1,10,0.00,,---,0.00,VWS V14.01,2013-08-26 23:35:00,
2013-08-26 17:37:00,80.2,18.8,29.94,SSE,158,7.6,8.7,10,0.00,,---,0.00,VWS V14.01,2013-08-26 23:37:00,
2013-08-26 17:38:00,80.2,18.8,29.94,South,190,9.6,11.0,10,0.00,,---,0.00,VWS V14.01,2013-08-26 23:38:00,
2013-08-26 17:39:00,80.2,18.8,29.94,SSW,207,10.5,10.5,10,0.00,,---,0.00,VWS V14.01,2013-08-26 23:39:00,
2013-08-26 17:40:00,80.2,18.8,29.94,SSE,155,4.9,10.5,10,0.00,,---,0.00,VWS V14.01,2013-08-26 23:40:00,
2013-08-26 17:42:00,80.2,18.8,29.94,SW,220,10.5,11.0,10,0.00,,---,0.00,VWS V14.01,2013-08-26 23:42:00,
2013-08-26 17:43:00,80.2,18.8,29.94,SSW,209,8.7,12.3,10,0.00,,---,0.00,VWS V14.01,2013-08-26 23:43:00,
2013-08-26 17:44:00,80.1,18.6,29.94,SW,222,8.1,11.0,10,0.00,,---,0.00,VWS V14.01,2013-08-26 23:44:00,
2013-08-26 17:45:00,80.1,18.6,29.94,SSW,211,8.3,11.9,10,0.00,,---,0.00,VWS V14.01,2013-08-26 23:45:00,
2013-08-26 17:47:00,80.1,18.6,29.94,SSW,213,5.8,8.7,10,0.00,,---,0.00,VWS V14.01,2013-08-26 23:47:00,
2013-08-26 17:48:00,80.1,18.6,29.94,SSW,194,10.5,14.5,10,0.00,,---,0.00,VWS V14.01,2013-08-26 23:48:00,
2013-08-26 17:49:00,79.9,18.5,29.94,South,174,8.7,10.1,10,0.00,,---,0.00,VWS V14.01,2013-08-26 23:49:00,
2013-08-26 17:50:00,79.9,18.5,29.94,SSW,198,11.0,11.0,10,0.00,,---,0.00,VWS V14.01,2013-08-26 23:50:00,
2013-08-26 17:52:00,79.9,18.5,29.94,SSW,197,6.7,10.1,10,0.00,,---,0.00,VWS V14.01,2013-08-26 23:52:00,
2013-08-26 17:53:00,79.9,18.5,29.94,SSW,200,8.1,9.2,10,0.00,,---,0.00,VWS V14.01,2013-08-26 23:53:00,
2013-08-26 17:54:00,79.9,18.5,29.94,SSW,200,8.3,8.3,10,0.00,,---,0.00,VWS V14.01,2013-08-26 23:54:00,
2013-08-26 17:55:00,79.9,18.5,29.94,SSW,196,7.6,8.7,10,0.00,,---,0.00,VWS V14.01,2013-08-26 23:55:00,
2013-08-26 17:57:00,79.9,18.5,29.94,SSE,167,5.4,9.2,10,0.00,,---,0.00,VWS V14.01,2013-08-26 23:57:00,
2013-08-26 17:58:00,79.9,18.5,29.94,SSW,194,5.8,7.6,10,0.00,,---,0.00,VWS V14.01,2013-08-26 23:58:00,
2013-08-26 17:59:00,79.9,18.5,29.94,SSW,195,8.7,8.7,10,0.00,,---,0.00,VWS V14.01,2013-08-26 23:59:00,
2013-08-26 18:00:00,79.7,18.4,29.94,SSW,197,8.3,11.4,10,0.00,,---,0.00,VWS V14.01,2013-08-27 00:00:00,
2013-08-26 18:03:00,79.7,18.4,29.94,SW,222,5.8,8.7,10,0.00,,---,0.00,VWS V14.01,2013-08-27 00:03:00,
2013-08-26 18:04:00,79.7,18.4,29.94,SSW,206,8.3,12.8,10,0.00,,---,0.00,VWS V14.01,2013-08-27 00:04:00,
2013-08-26 18:05:00,79.7,18.4,29.94,South,173,5.4,10.1,10,0.00,,---,0.00,VWS V14.01,2013-08-27 00:05:00,
2013-08-26 18:06:00,79.7,18.4,29.94,South,173,5.4,10.1,10,0.00,,---,0.00,VWS V14.01,2013-08-27 00:06:00,
2013-08-26 18:08:00,79.7,18.4,29.94,SSW,203,6.3,7.2,10,0.00,,---,0.00,VWS V14.01,2013-08-27 00:08:00,
2013-08-26 18:09:00,79.7,18.4,29.94,South,184,10.1,10.1,10,0.00,,---,0.00,VWS V14.01,2013-08-27 00:09:00,
2013-08-26 18:11:00,79.9,18.5,29.94,South,187,8.1,10.1,10,0.00,,---,0.00,VWS V14.01,2013-08-27 00:11:00,
2013-08-26 18:13:00,79.9,18.5,29.94,SSW,193,10.1,10.1,10,0.00,,---,0.00,VWS V14.01,2013-08-27 00:13:00,
2013-08-26 18:15:00,79.7,18.4,29.94,SSW,201,5.8,7.6,10,0.00,,---,0.00,VWS V14.01,2013-08-27 00:15:00,
2013-08-26 18:16:00,79.5,18.2,29.94,SSW,194,5.4,8.1,10,0.00,,---,0.00,VWS V14.01,2013-08-27 00:16:00,
2013-08-26 18:18:00,79.5,18.2,29.94,SSW,200,5.8,8.1,10,0.00,,---,0.00,VWS V14.01,2013-08-27 00:18:00,
2013-08-26 18:19:00,79.5,18.2,29.94,SSW,212,8.1,8.1,10,0.00,,---,0.00,VWS V14.01,2013-08-27 00:19:00,
2013-08-26 18:20:00,79.3,18.1,29.94,SSW,198,6.3,7.6,10,0.00,,---,0.00,VWS V14.01,2013-08-27 00:20:00,
2013-08-26 18:21:00,79.5,18.2,29.94,SSW,207,8.7,8.7,10,0.00,,---,0.00,VWS V14.01,2013-08-27 00:21:00,
2013-08-26 18:23:00,79.5,18.2,29.94,SSW,213,5.8,6.3,10,0.00,,---,0.00,VWS V14.01,2013-08-27 00:23:00,
2013-08-26 18:24:00,79.5,18.2,29.94,SSW,195,5.8,6.3,10,0.00,,---,0.00,VWS V14.01,2013-08-27 00:24:00,
2013-08-26 18:25:00,79.5,18.2,29.94,SSW,192,6.3,6.3,10,0.00,,---,0.00,VWS V14.01,2013-08-27 00:25:00,
2013-08-26 18:26:00,79.5,18.2,29.94,SSW,206,6.3,8.1,10,0.00,,---,0.00,VWS V14.01,2013-08-27 00:26:00,
2013-08-26 18:28:00,79.5,18.2,29.94,SSW,204,5.4,5.4,10,0.00,,---,0.00,VWS V14.01,2013-08-27 00:28:00,
2013-08-26 18:29:00,79.5,18.2,29.94,SW,219,6.3,6.3,10,0.00,,---,0.00,VWS V14.01,2013-08-27 00:29:00,
2013-08-26 18:30:00,79.5,18.2,29.94,South,183,8.1,8.1,10,0.00,,---,0.00,VWS V14.01,2013-08-27 00:30:00,
2013-08-26 18:31:00,79.5,18.2,29.94,SSW,203,5.8,8.1,10,0.00,,---,0.00,VWS V14.01,2013-08-27 00:31:00,
2013-08-26 18:33:00,79.5,18.2,29.94,South,189,5.8,5.8,10,0.00,,---,0.00,VWS V14.01,2013-08-27 00:33:00,
2013-08-26 18:34:00,79.3,18.1,29.94,SSW,199,8.3,8.3,10,0.00,,---,0.00,VWS V14.01,2013-08-27 00:34:00,
2013-08-26 18:35:00,79.2,18.0,29.94,South,190,8.7,11.0,10,0.00,,---,0.00,VWS V14.01,2013-08-27 00:35:00,
2013-08-26 18:36:00,79.0,17.8,29.94,SSW,195,10.1,13.6,10,0.00,,---,0.00,VWS V14.01,2013-08-27 00:36:00,
2013-08-26 18:38:00,78.8,17.7,29.94,SSW,194,8.1,12.8,10,0.00,,---,0.00,VWS V14.01,2013-08-27 00:38:00,
2013-08-26 18:39:00,78.6,17.5,29.94,South,184,4.9,6.7,10,0.00,,---,0.00,VWS V14.01,2013-08-27 00:39:00,
2013-08-26 18:41:00,78.6,17.5,29.94,SSW,212,5.4,8.1,10,0.00,,---,0.00,VWS V14.01,2013-08-27 00:41:00,
2013-08-26 18:43:00,78.3,17.3,29.94,SSW,195,8.7,8.7,10,0.00,,---,0.00,VWS V14.01,2013-08-27 00:43:00,
2013-08-26 18:44:00,78.3,17.3,29.94,SSW,203,6.3,8.3,10,0.00,,---,0.00,VWS V14.01,2013-08-27 00:44:00,
2013-08-26 18:46:00,77.9,17.0,29.94,SSW,192,8.1,8.3,10,0.00,,---,0.00,VWS V14.01,2013-08-27 00:46:00,
2013-08-26 18:47:00,77.9,17.0,29.94,SSW,195,8.7,10.5,10,0.00,,---,0.00,VWS V14.01,2013-08-27 00:47:00,
2013-08-26 18:48:00,77.7,16.9,29.94,SSW,192,7.6,11.0,10,0.00,,---,0.00,VWS V14.01,2013-08-27 00:48:00,
2013-08-26 18:49:00,77.5,16.7,29.94,SSW,200,8.1,9.2,10,0.00,,---,0.00,VWS V14.01,2013-08-27 00:49:00,
2013-08-26 18:51:00,77.4,16.6,29.94,SSW,213,6.3,8.1,10,0.00,,---,0.00,VWS V14.01,2013-08-27 00:51:00,
2013-08-26 18:52:00,77.4,16.6,29.94,SSW,201,6.3,8.3,10,0.00,,---,0.00,VWS V14.01,2013-08-27 00:52:00,
2013-08-26 18:53:00,77.2,16.5,29.94,South,183,7.6,10.1,10,0.00,,---,0.00,VWS V14.01,2013-08-27 00:53:00,
2013-08-26 18:54:00,77.0,16.3,29.94,SSW,198,8.1,8.3,10,0.00,,---,0.00,VWS V14.01,2013-08-27 00:54:00,
2013-08-26 18:56:00,77.0,16.3,29.94,SSW,206,7.6,8.7,10,0.00,,---,0.00,VWS V14.01,2013-08-27 00:56:00,
2013-08-26 18:57:00,76.8,16.2,29.94,SSW,196,5.8,7.6,10,0.00,,---,0.00,VWS V14.01,2013-08-27 00:57:00,
2013-08-26 18:58:00,76.6,16.0,29.94,SW,217,8.3,8.3,10,0.00,,---,0.00,VWS V14.01,2013-08-27 00:58:00,
2013-08-26 19:00:00,76.6,16.0,29.94,South,190,7.6,10.1,10,0.00,,---,0.00,VWS V14.01,2013-08-27 01:00:00,
2013-08-26 19:01:00,76.6,16.0,29.94,SSW,201,4.0,5.4,10,0.00,,---,0.00,VWS V14.01,2013-08-27 01:01:00,
2013-08-26 19:02:00,76.5,15.9,29.94,SSW,213,6.3,7.6,10,0.00,,---,0.00,VWS V14.01,2013-08-27 01:02:00,
2013-08-26 19:03:00,76.5,15.9,29.94,SSW,199,6.3,6.7,10,0.00,,---,0.00,VWS V14.01,2013-08-27 01:03:00,
2013-08-26 19:05:00,76.3,15.8,29.94,SSW,208,5.4,6.3,10,0.00,,---,0.00,VWS V14.01,2013-08-27 01:05:00,
2013-08-26 19:06:00,76.3,21.9,29.94,SSW,208,6.7,7.6,13,0.00,,---,0.00,VWS V14.01,2013-08-27 01:06:00,
2013-08-26 19:07:00,76.1,21.7,29.94,South,189,7.6,7.6,13,0.00,,---,0.00,VWS V14.01,2013-08-27 01:07:00,
2013-08-26 19:08:00,76.1,21.7,29.94,SSW,204,5.8,6.3,13,0.00,,---,0.00,VWS V14.01,2013-08-27 01:08:00,
2013-08-26 19:10:00,76.1,21.7,29.94,SSW,194,6.3,7.6,13,0.00,,---,0.00,VWS V14.01,2013-08-27 01:10:00,
2013-08-26 19:11:00,76.1,21.7,29.94,SSW,209,8.3,8.3,13,0.00,,---,0.00,VWS V14.01,2013-08-27 01:11:00,
2013-08-26 19:12:00,76.1,21.7,29.94,SSW,197,7.2,8.3,13,0.00,,---,0.00,VWS V14.01,2013-08-27 01:12:00,
2013-08-26 19:13:00,75.9,21.6,29.97,South,189,6.7,7.2,13,0.00,,---,0.00,VWS V14.01,2013-08-27 01:13:00,
2013-08-26 19:15:00,75.9,21.6,29.97,SSW,193,9.6,9.6,13,0.00,,---,0.00,VWS V14.01,2013-08-27 01:15:00,
2013-08-26 19:16:00,75.9,21.6,29.97,South,185,12.8,12.8,13,0.00,,---,0.00,VWS V14.01,2013-08-27 01:16:00,
2013-08-26 19:17:00,75.9,21.6,29.97,SSW,198,8.3,12.8,13,0.00,,---,0.00,VWS V14.01,2013-08-27 01:17:00,
2013-08-26 19:19:00,76.1,21.7,29.97,SW,220,8.3,10.1,13,0.00,,---,0.00,VWS V14.01,2013-08-27 01:19:00,
2013-08-26 19:20:00,76.1,21.7,29.97,SSW,199,5.8,6.3,13,0.00,,---,0.00,VWS V14.01,2013-08-27 01:20:00,
2013-08-26 19:21:00,76.1,21.7,29.97,SSW,201,5.8,6.3,13,0.00,,---,0.00,VWS V14.01,2013-08-27 01:21:00,
2013-08-26 19:22:00,75.9,21.6,29.97,SSW,209,5.8,6.3,13,0.00,,---,0.00,VWS V14.01,2013-08-27 01:22:00,
2013-08-26 19:23:00,75.9,21.6,29.97,SSW,201,5.8,7.6,13,0.00,,---,0.00,VWS V14.01,2013-08-27 01:23:00,
2013-08-26 19:24:00,75.9,21.6,29.97,SSW,198,7.6,7.6,13,0.00,,---,0.00,VWS V14.01,2013-08-27 01:24:00,
2013-08-26 19:25:00,75.7,21.5,29.97,SSW,195,7.6,7.6,13,0.00,,---,0.00,VWS V14.01,2013-08-27 01:25:00,
2013-08-26 19:27:00,75.7,21.5,29.97,South,182,6.3,8.3,13,0.00,,---,0.00,VWS V14.01,2013-08-27 01:27:00,
2013-08-26 19:28:00,75.6,21.3,29.97,SW,228,8.1,13.2,13,0.00,,---,0.00,VWS V14.01,2013-08-27 01:28:00,
2013-08-26 19:29:00,75.4,21.2,29.97,SSW,195,11.9,20.1,13,0.00,,---,0.00,VWS V14.01,2013-08-27 01:29:00,
2013-08-26 19:31:00,75.2,21.0,29.97,SSW,199,8.1,10.1,13,0.00,,---,0.00,VWS V14.01,2013-08-27 01:31:00,
2013-08-26 19:32:00,74.8,20.7,29.97,SW,225,8.7,8.7,13,0.00,,---,0.00,VWS V14.01,2013-08-27 01:32:00,
2013-08-26 19:33:00,74.7,20.6,29.97,WSW,238,3.6,11.0,13,0.00,,---,0.00,VWS V14.01,2013-08-27 01:33:00,
2013-08-26 19:34:00,74.7,20.6,29.97,SSW,202,5.4,5.4,13,0.00,,---,0.00,VWS V14.01,2013-08-27 01:34:00,
2013-08-26 19:36:00,74.3,20.3,29.97,South,190,7.6,10.1,13,0.00,,---,0.00,VWS V14.01,2013-08-27 01:36:00,
2013-08-26 19:38:00,74.1,20.2,29.97,SSW,194,11.9,11.9,13,0.00,,---,0.00,VWS V14.01,2013-08-27 01:38:00,
2013-08-26 19:39:00,73.9,20.0,29.97,SSW,205,11.0,11.0,13,0.00,,---,0.00,VWS V14.01,2013-08-27 01:39:00,
2013-08-26 19:41:00,73.6,24.7,29.97,SSW,201,7.6,8.1,16,0.00,,---,0.00,VWS V14.01,2013-08-27 01:41:00,
2013-08-26 19:43:00,73.0,24.2,29.97,South,185,12.3,12.3,16,0.00,,---,0.00,VWS V14.01,2013-08-27 01:43:00,
2013-08-26 19:44:00,72.7,28.1,30.00,SSW,193,11.9,13.6,19,0.00,,---,0.00,VWS V14.01,2013-08-27 01:44:00,
2013-08-26 19:46:00,72.0,31.1,30.00,South,189,8.1,8.7,22,0.00,,---,0.00,VWS V14.01,2013-08-27 01:46:00,
2013-08-26 19:48:00,71.2,30.5,30.00,SSW,204,5.8,7.6,22,0.00,,---,0.00,VWS V14.01,2013-08-27 01:48:00,
2013-08-26 19:49:00,71.1,31.4,30.00,South,187,5.4,6.3,23,0.00,,---,0.00,VWS V14.01,2013-08-27 01:49:00,
2013-08-26 19:50:00,70.7,31.1,30.00,South,173,3.1,4.9,23,0.00,,---,0.00,VWS V14.01,2013-08-27 01:50:00,
2013-08-26 19:51:00,70.5,31.0,30.00,South,177,2.7,3.1,23,0.00,,---,0.00,VWS V14.01,2013-08-27 01:51:00,
2013-08-26 19:53:00,70.0,34.5,30.00,South,174,2.7,4.0,27,0.00,,---,0.00,VWS V14.01,2013-08-27 01:53:00,
2013-08-26 19:54:00,69.8,35.3,30.00,South,177,2.7,3.6,28,0.00,,---,0.00,VWS V14.01,2013-08-27 01:54:00,
2013-08-26 19:55:00,69.4,38.3,30.00,South,184,5.8,5.8,32,0.00,,---,0.00,VWS V14.01,2013-08-27 01:55:00,
2013-08-26 19:56:00,69.1,38.0,30.00,South,178,5.8,5.8,32,0.00,,---,0.00,VWS V14.01,2013-08-27 01:56:00,
2013-08-26 19:58:00,68.7,37.7,29.97,SSW,194,5.8,5.8,32,0.00,,---,0.00,VWS V14.01,2013-08-27 01:58:00,
2013-08-26 19:59:00,68.4,38.2,29.97,South,190,5.8,5.8,33,0.00,,---,0.00,VWS V14.01,2013-08-27 01:59:00,
2013-08-26 20:00:00,68.4,38.2,29.97,SSW,198,6.3,6.3,33,0.00,,---,0.00,VWS V14.01,2013-08-27 02:00:00,
2013-08-26 20:01:00,68.2,38.0,29.97,South,187,7.6,7.6,33,0.00,,---,0.00,VWS V14.01,2013-08-27 02:01:00,
2013-08-26 20:03:00,67.8,38.5,29.97,SSW,197,10.5,10.5,34,0.00,,---,0.00,VWS V14.01,2013-08-27 02:03:00,
2013-08-26 20:04:00,67.6,38.3,29.97,SSW,210,6.3,10.5,34,0.00,,---,0.00,VWS V14.01,2013-08-27 02:04:00,
2013-08-26 20:05:00,67.5,38.9,29.97,SSW,199,8.7,8.7,35,0.00,,---,0.00,VWS V14.01,2013-08-27 02:05:00,
2013-08-26 20:06:00,67.3,39.4,29.97,South,190,5.8,10.5,36,0.00,,---,0.00,VWS V14.01,2013-08-27 02:06:00,
2013-08-26 20:09:00,66.9,39.8,29.97,South,190,5.8,6.3,37,0.00,,---,0.00,VWS V14.01,2013-08-27 02:09:00,
2013-08-26 20:10:00,66.6,38.8,29.97,SSW,207,7.6,7.6,36,0.00,,---,0.00,VWS V14.01,2013-08-27 02:10:00,
2013-08-26 20:11:00,66.4,37.9,29.97,SSW,203,5.8,7.6,35,0.00,,---,0.00,VWS V14.01,2013-08-27 02:11:00,
2013-08-26 20:14:00,66.4,39.3,29.97,South,190,4.0,4.0,37,0.00,,---,0.00,VWS V14.01,2013-08-27 02:14:00,
2013-08-26 20:15:00,66.4,40.0,29.97,South,171,3.1,4.0,38,0.00,,---,0.00,VWS V14.01,2013-08-27 02:15:00,
2013-08-26 20:16:00,66.2,41.8,29.97,SSE,166,3.1,3.1,41,0.00,,---,0.00,VWS V14.01,2013-08-27 02:16:00,
2013-08-26 20:19:00,65.7,42.6,29.97,SSW,208,5.8,5.8,43,0.00,,---,0.00,VWS V14.01,2013-08-27 02:19:00,
2013-08-26 20:20:00,65.5,42.4,29.97,SSW,198,5.8,6.3,43,0.00,,---,0.00,VWS V14.01,2013-08-27 02:20:00,
2013-08-26 20:21:00,65.3,42.2,29.97,SSW,198,5.8,8.1,43,0.00,,---,0.00,VWS V14.01,2013-08-27 02:21:00,
2013-08-26 20:22:00,65.1,42.1,29.97,SSW,204,4.0,5.4,43,0.00,,---,0.00,VWS V14.01,2013-08-27 02:22:00,
2013-08-26 20:24:00,64.8,42.4,29.97,SSW,202,5.4,5.4,44,0.00,,---,0.00,VWS V14.01,2013-08-27 02:24:00,
2013-08-26 20:25:00,64.8,42.4,29.97,SSW,206,4.0,5.4,44,0.00,,---,0.00,VWS V14.01,2013-08-27 02:25:00,
2013-08-26 20:26:00,64.6,41.6,29.97,SSW,212,4.0,6.3,43,0.00,,---,0.00,VWS V14.01,2013-08-27 02:26:00,
2013-08-26 20:27:00,64.6,41.6,29.97,South,190,4.0,5.4,43,0.00,,---,0.00,VWS V14.01,2013-08-27 02:27:00,
2013-08-26 20:29:00,64.6,41.0,29.97,SSW,199,5.8,6.3,42,0.00,,---,0.00,VWS V14.01,2013-08-27 02:29:00,
2013-08-26 20:30:00,64.6,41.0,29.97,South,186,6.3,6.3,42,0.00,,---,0.00,VWS V14.01,2013-08-27 02:30:00,
2013-08-26 20:32:00,64.8,39.9,29.97,SSW,204,5.4,7.6,40,0.00,,---,0.00,VWS V14.01,2013-08-27 02:32:00,
2013-08-26 20:34:00,65.1,40.9,29.97,SW,227,4.0,5.4,41,0.00,,---,0.00,VWS V14.01,2013-08-27 02:34:00,
2013-08-26 20:35:00,65.1,41.5,29.97,SW,216,4.9,4.9,42,0.00,,---,0.00,VWS V14.01,2013-08-27 02:35:00,
2013-08-26 20:37:00,65.1,40.9,29.97,SSW,195,5.4,5.4,41,0.00,,---,0.00,VWS V14.01,2013-08-27 02:37:00,
2013-08-26 20:39:00,65.3,39.7,29.97,SSW,196,3.1,4.0,39,0.00,,---,0.00,VWS V14.01,2013-08-27 02:39:00,
2013-08-26 20:40:00,65.3,39.7,29.97,SSW,196,3.1,4.0,39,0.00,,---,0.00,VWS V14.01,2013-08-27 02:40:00,
2013-08-26 20:42:00,65.5,39.9,29.97,SSW,196,2.7,2.7,39,0.00,,---,0.00,VWS V14.01,2013-08-27 02:42:00,
2013-08-26 20:45:00,65.5,39.2,29.97,SSW,198,2.7,2.7,38,0.00,,---,0.00,VWS V14.01,2013-08-27 02:45:00,
2013-08-26 20:47:00,65.5,37.8,29.97,SW,236,3.6,3.6,36,0.00,,---,0.00,VWS V14.01,2013-08-27 02:47:00,
2013-08-26 20:48:00,65.5,37.1,29.97,West,272,4.0,4.0,35,0.00,,---,0.00,VWS V14.01,2013-08-27 02:48:00,
2013-08-26 20:50:00,65.8,36.7,29.97,West,272,3.1,3.1,34,0.00,,---,0.00,VWS V14.01,2013-08-27 02:50:00,
2013-08-26 20:51:00,66.0,36.9,29.97,WSW,244,2.7,4.9,34,0.00,,---,0.00,VWS V14.01,2013-08-27 02:51:00,
2013-08-26 20:52:00,66.2,37.0,29.97,SW,224,3.1,4.0,34,0.00,,---,0.00,VWS V14.01,2013-08-27 02:52:00,
2013-08-26 20:53:00,66.4,37.2,29.97,SW,218,4.0,4.0,34,0.00,,---,0.00,VWS V14.01,2013-08-27 02:53:00,
2013-08-26 20:55:00,66.6,37.3,29.97,SW,218,3.6,4.9,34,0.00,,---,0.00,VWS V14.01,2013-08-27 02:55:00,
2013-08-26 20:56:00,66.7,36.8,29.97,SSW,208,5.4,5.4,33,0.00,,---,0.00,VWS V14.01,2013-08-27 02:56:00,
2013-08-26 20:57:00,66.7,36.8,29.97,SSW,205,5.4,5.4,33,0.00,,---,0.00,VWS V14.01,2013-08-27 02:57:00,
2013-08-26 20:58:00,66.9,36.9,29.97,SSW,203,5.8,6.3,33,0.00,,---,0.00,VWS V14.01,2013-08-27 02:58:00,
2013-08-26 21:00:00,67.5,37.4,29.97,SSW,208,5.4,5.8,33,0.00,,---,0.00,VWS V14.01,2013-08-27 03:00:00,
2013-08-26 21:01:00,67.6,36.8,29.97,SSW,203,5.4,6.3,32,0.00,,---,0.00,VWS V14.01,2013-08-27 03:01:00,
2013-08-26 21:02:00,67.8,36.1,29.97,SSW,204,5.4,6.3,31,0.00,,---,0.00,VWS V14.01,2013-08-27 03:02:00,
2013-08-26 21:03:00,68.0,35.4,29.97,SSW,208,5.4,5.8,30,0.00,,---,0.00,VWS V14.01,2013-08-27 03:03:00,
2013-08-26 21:05:00,68.4,34.9,29.97,SW,218,5.4,6.3,29,0.00,,---,0.00,VWS V14.01,2013-08-27 03:05:00,
2013-08-26 21:06:00,68.7,35.2,29.97,SSW,202,5.8,5.8,29,0.00,,---,0.00,VWS V14.01,2013-08-27 03:06:00,
2013-08-26 21:07:00,68.7,34.3,29.97,SSW,210,4.9,5.8,28,0.00,,---,0.00,VWS V14.01,2013-08-27 03:07:00,
2013-08-26 21:08:00,68.9,34.5,29.97,SW,218,3.6,4.0,28,0.00,,---,0.00,VWS V14.01,2013-08-27 03:08:00,
2013-08-26 21:10:00,69.1,34.6,29.97,SSW,213,3.1,3.6,28,0.00,,---,0.00,VWS V14.01,2013-08-27 03:10:00,
2013-08-26 21:11:00,69.1,34.6,29.97,SSW,210,5.8,5.8,28,0.00,,---,0.00,VWS V14.01,2013-08-27 03:11:00,
2013-08-26 21:12:00,69.3,33.9,29.97,SSW,205,5.4,5.8,27,0.00,,---,0.00,VWS V14.01,2013-08-27 03:12:00,
2013-08-26 21:13:00,69.3,32.9,29.97,SW,217,5.4,5.8,26,0.00,,---,0.00,VWS V14.01,2013-08-27 03:13:00,
2013-08-26 21:15:00,69.6,33.2,29.97,WSW,241,3.1,4.0,26,0.00,,---,0.00,VWS V14.01,2013-08-27 03:15:00,
2013-08-26 21:16:00,69.6,33.2,29.97,WSW,242,2.7,3.6,26,0.00,,---,0.00,VWS V14.01,2013-08-27 03:16:00,
2013-08-26 21:17:00,69.6,33.2,29.97,WSW,243,2.7,3.1,26,0.00,,---,0.00,VWS V14.01,2013-08-27 03:17:00,
2013-08-26 21:19:00,69.8,33.4,29.97,WNW,296,2.7,3.1,26,0.00,,---,0.00,VWS V14.01,2013-08-27 03:19:00,
2013-08-26 21:20:00,69.6,34.2,29.97,West,269,5.4,5.4,27,0.00,,---,0.00,VWS V14.01,2013-08-27 03:20:00,
2013-08-26 21:21:00,69.4,34.0,29.97,West,269,3.1,3.6,27,0.00,,---,0.00,VWS V14.01,2013-08-27 03:21:00,
2013-08-26 21:22:00,69.4,34.0,29.97,West,269,3.1,3.6,27,0.00,,---,0.00,VWS V14.01,2013-08-27 03:22:00,
2013-08-26 21:24:00,69.3,34.8,29.97,West,272,4.0,4.0,28,0.00,,---,0.00,VWS V14.01,2013-08-27 03:24:00,
2013-08-26 21:25:00,69.1,34.6,29.97,West,263,2.7,3.6,28,0.00,,---,0.00,VWS V14.01,2013-08-27 03:25:00,
2013-08-26 21:26:00,69.1,35.5,29.97,WSW,256,2.7,2.7,29,0.00,,---,0.00,VWS V14.01,2013-08-27 03:26:00,
2013-08-26 21:27:00,68.9,35.4,29.97,SSW,207,3.1,3.1,29,0.00,,---,0.00,VWS V14.01,2013-08-27 03:27:00,
2013-08-26 21:29:00,68.9,34.5,29.97,SSW,212,2.7,2.7,28,0.00,,---,0.00,VWS V14.01,2013-08-27 03:29:00,
2013-08-26 21:31:00,68.7,34.3,29.97,SSW,202,0.0,2.7,28,0.00,,---,0.00,VWS V14.01,2013-08-27 03:31:00,
2013-08-26 21:32:00,68.5,34.2,29.97,South,176,0.0,4.0,28,0.00,,---,0.00,VWS V14.01,2013-08-27 03:32:00,
2013-08-26 21:34:00,68.5,33.3,29.97,SSW,207,3.6,3.6,27,0.00,,---,0.00,VWS V14.01,2013-08-27 03:34:00,
2013-08-26 21:36:00,68.5,33.3,29.97,SSW,203,5.8,5.8,27,0.00,,---,0.00,VWS V14.01,2013-08-27 03:36:00,
2013-08-26 21:37:00,68.7,32.5,29.97,SSW,199,8.1,8.1,26,0.00,,---,0.00,VWS V14.01,2013-08-27 03:37:00,
2013-08-26 21:39:00,69.3,32.9,29.97,SSW,196,14.5,14.5,26,0.00,,---,0.00,VWS V14.01,2013-08-27 03:39:00,
2013-08-26 21:41:00,69.4,33.1,29.97,SW,221,6.3,10.1,26,0.00,,---,0.00,VWS V14.01,2013-08-27 03:41:00,
2013-08-26 21:42:00,69.6,34.2,29.97,SSW,210,6.3,10.5,27,0.00,,---,0.00,VWS V14.01,2013-08-27 03:42:00,
2013-08-26 21:44:00,69.6,33.2,30.00,SSW,211,8.3,10.1,26,0.00,,---,0.00,VWS V14.01,2013-08-27 03:44:00,
2013-08-26 21:46:00,69.6,33.2,30.00,SSW,196,8.3,10.5,26,0.00,,---,0.00,VWS V14.01,2013-08-27 03:46:00,
2013-08-26 21:47:00,69.6,33.2,30.00,SSW,204,12.3,12.3,26,0.00,,---,0.00,VWS V14.01,2013-08-27 03:47:00,
2013-08-26 21:48:00,69.8,32.4,30.00,SSW,204,10.1,12.3,25,0.00,,---,0.00,VWS V14.01,2013-08-27 03:48:00,
2013-08-26 21:50:00,69.8,32.4,30.00,SW,216,11.9,17.0,25,0.00,,---,0.00,VWS V14.01,2013-08-27 03:50:00,
2013-08-26 21:51:00,70.0,32.6,30.00,SW,216,8.3,10.5,25,0.00,,---,0.00,VWS V14.01,2013-08-27 03:51:00,
2013-08-26 21:52:00,70.0,32.6,30.00,SSW,198,8.1,9.6,25,0.00,,---,0.00,VWS V14.01,2013-08-27 03:52:00,
2013-08-26 21:53:00,70.0,32.6,30.00,SSW,192,10.5,12.3,25,0.00,,---,0.00,VWS V14.01,2013-08-27 03:53:00,
2013-08-26 21:55:00,70.0,32.6,30.00,South,184,8.3,8.3,25,0.00,,---,0.00,VWS V14.01,2013-08-27 03:55:00,
2013-08-26 21:56:00,70.0,32.6,30.00,SSW,204,8.1,11.0,25,0.00,,---,0.00,VWS V14.01,2013-08-27 03:56:00,
2013-08-26 21:57:00,69.8,32.4,30.00,SSW,206,8.7,9.2,25,0.00,,---,0.00,VWS V14.01,2013-08-27 03:57:00,
2013-08-26 21:58:00,69.8,32.4,30.00,SSW,204,8.1,8.1,25,0.00,,---,0.00,VWS V14.01,2013-08-27 03:58:00,
2013-08-26 22:00:00,69.8,32.4,30.00,SSW,200,8.7,10.5,25,0.00,,---,0.00,VWS V14.01,2013-08-27 04:00:00,
2013-08-26 22:01:00,69.8,32.4,30.00,SSW,195,7.6,8.7,25,0.00,,---,0.00,VWS V14.01,2013-08-27 04:01:00,
2013-08-26 22:06:00,69.8,32.4,30.00,SSW,209,4.5,5.8,25,0.00,,---,0.00,VWS V14.01,2013-08-27 04:06:00,
2013-08-26 22:11:00,69.4,33.1,30.00,SSW,205,5.4,5.8,26,0.00,,---,0.00,VWS V14.01,2013-08-27 04:11:00,
2013-08-26 22:16:00,69.1,32.8,29.97,SSW,206,3.1,5.4,26,0.00,,---,0.00,VWS V14.01,2013-08-27 04:16:00,
2013-08-26 22:17:00,68.9,32.6,29.97,SSW,207,4.0,4.0,26,0.00,,---,0.00,VWS V14.01,2013-08-27 04:17:00,
2013-08-26 22:21:00,68.7,32.5,29.97,SW,221,0.0,2.7,26,0.00,,---,0.00,VWS V14.01,2013-08-27 04:21:00,
2013-08-26 22:22:00,68.7,32.5,29.97,SW,220,0.0,0.0,26,0.00,,---,0.00,VWS V14.01,2013-08-27 04:22:00,
2013-08-26 22:26:00,68.4,32.2,29.97,South,189,0.0,0.0,26,0.00,,---,0.00,VWS V14.01,2013-08-27 04:26:00,
2013-08-26 22:27:00,68.4,32.2,29.97,South,189,2.2,2.2,26,0.00,,---,0.00,VWS V14.01,2013-08-27 04:27:00,
2013-08-26 22:31:00,68.0,31.9,30.00,South,189,0.0,0.0,26,0.00,,---,0.00,VWS V14.01,2013-08-27 04:31:00,
2013-08-26 22:32:00,68.0,31.9,30.00,South,189,0.0,0.0,26,0.00,,---,0.00,VWS V14.01,2013-08-27 04:32:00,
2013-08-26 22:36:00,67.5,32.3,30.00,South,170,0.0,0.0,27,0.00,,---,0.00,VWS V14.01,2013-08-27 04:36:00,
2013-08-26 22:37:00,67.5,32.3,30.00,South,170,0.0,0.0,27,0.00,,---,0.00,VWS V14.01,2013-08-27 04:37:00,
2013-08-26 22:41:00,67.5,32.3,30.00,South,169,0.0,0.0,27,0.00,,---,0.00,VWS V14.01,2013-08-27 04:41:00,
2013-08-26 22:42:00,67.5,32.3,30.00,SSE,159,0.0,0.0,27,0.00,,---,0.00,VWS V14.01,2013-08-27 04:42:00,
2013-08-26 22:47:00,67.5,32.3,30.00,SSE,154,0.0,0.0,27,0.00,,---,0.00,VWS V14.01,2013-08-27 04:47:00,
2013-08-26 22:48:00,67.3,32.2,30.00,SSE,154,0.0,0.0,27,0.00,,---,0.00,VWS V14.01,2013-08-27 04:48:00,
2013-08-26 22:52:00,67.1,32.9,30.00,SSE,150,2.2,2.7,28,0.00,,---,0.00,VWS V14.01,2013-08-27 04:52:00,
2013-08-26 22:53:00,67.1,33.8,30.00,South,175,2.7,2.7,29,0.00,,---,0.00,VWS V14.01,2013-08-27 04:53:00,
2013-08-26 22:57:00,66.9,35.3,30.00,South,185,2.7,3.1,31,0.00,,---,0.00,VWS V14.01,2013-08-27 04:57:00,
2013-08-26 22:58:00,66.7,34.3,30.00,SSW,200,3.1,3.1,30,0.00,,---,0.00,VWS V14.01,2013-08-27 04:58:00,
2013-08-26 23:02:00,66.9,34.5,30.00,SSW,196,3.1,3.1,30,0.00,,---,0.00,VWS V14.01,2013-08-27 05:02:00,
2013-08-26 23:03:00,66.9,34.5,30.00,SSW,196,3.1,3.1,30,0.00,,---,0.00,VWS V14.01,2013-08-27 05:03:00,
2013-08-26 23:04:00,66.9,33.7,30.00,SSW,200,4.0,4.0,29,0.00,,---,0.00,VWS V14.01,2013-08-27 05:04:00,
2013-08-26 23:07:00,66.9,33.7,30.00,SSW,202,3.6,3.6,29,0.00,,---,0.00,VWS V14.01,2013-08-27 05:07:00,
2013-08-26 23:08:00,67.1,33.8,30.00,SSW,200,3.1,4.0,29,0.00,,---,0.00,VWS V14.01,2013-08-27 05:08:00,
2013-08-26 23:09:00,67.1,33.8,30.00,SSW,199,4.0,4.0,29,0.00,,---,0.00,VWS V14.01,2013-08-27 05:09:00,
2013-08-26 23:12:00,67.3,33.1,30.00,SSW,197,3.6,3.6,28,0.00,,---,0.00,VWS V14.01,2013-08-27 05:12:00,
2013-08-26 23:13:00,67.3,33.1,30.00,SSW,197,3.6,3.6,28,0.00,,---,0.00,VWS V14.01,2013-08-27 05:13:00,
2013-08-26 23:14:00,67.3,33.1,30.00,SSW,206,2.7,4.0,28,0.00,,---,0.00,VWS V14.01,2013-08-27 05:14:00,
2013-08-26 23:17:00,67.5,33.2,30.00,SSW,198,3.1,3.1,28,0.00,,---,0.00,VWS V14.01,2013-08-27 05:17:00,
2013-08-26 23:18:00,67.5,32.3,30.00,SSW,192,3.1,3.6,27,0.00,,---,0.00,VWS V14.01,2013-08-27 05:18:00,
2013-08-26 23:19:00,67.5,32.3,30.00,SSW,192,3.1,3.6,27,0.00,,---,0.00,VWS V14.01,2013-08-27 05:19:00,
2013-08-26 23:22:00,67.6,32.5,30.00,South,190,3.1,4.9,27,0.00,,---,0.00,VWS V14.01,2013-08-27 05:22:00,
2013-08-26 23:23:00,67.6,32.5,30.00,SSW,206,3.6,3.6,27,0.00,,---,0.00,VWS V14.01,2013-08-27 05:23:00,
2013-08-26 23:24:00,67.6,32.5,30.00,SSW,206,3.6,4.0,27,0.00,,---,0.00,VWS V14.01,2013-08-27 05:24:00,
2013-08-26 23:27:00,67.6,32.5,30.00,South,191,2.7,3.1,27,0.00,,---,0.00,VWS V14.01,2013-08-27 05:27:00,
2013-08-26 23:28:00,67.6,32.5,30.00,SSW,192,2.7,2.7,27,0.00,,---,0.00,VWS V14.01,2013-08-27 05:28:00,
2013-08-26 23:29:00,67.5,32.3,30.00,SSW,192,0.0,2.7,27,0.00,,---,0.00,VWS V14.01,2013-08-27 05:29:00,
2013-08-26 23:32:00,67.5,33.2,30.00,SSW,192,0.0,0.0,28,0.00,,---,0.00,VWS V14.01,2013-08-27 05:32:00,
2013-08-26 23:33:00,67.5,33.2,30.00,SSW,192,0.0,0.0,28,0.00,,---,0.00,VWS V14.01,2013-08-27 05:33:00,
2013-08-26 23:34:00,67.3,33.1,30.00,SSW,192,0.0,0.0,28,0.00,,---,0.00,VWS V14.01,2013-08-27 05:34:00,
2013-08-26 23:35:00,67.3,33.1,30.00,SSW,192,0.0,0.0,28,0.00,,---,0.00,VWS V14.01,2013-08-27 05:35:00,
2013-08-26 23:38:00,66.9,32.8,30.00,SSW,192,0.0,0.0,28,0.00,,---,0.00,VWS V14.01,2013-08-27 05:38:00,
2013-08-26 23:39:00,66.7,32.6,30.00,SSW,192,0.0,0.0,28,0.00,,---,0.00,VWS V14.01,2013-08-27 05:39:00,
2013-08-26 23:43:00,66.6,33.3,30.00,SSW,192,0.0,0.0,29,0.00,,---,0.00,VWS V14.01,2013-08-27 05:43:00,
2013-08-26 23:44:00,66.4,34.0,30.00,SSW,192,0.0,0.0,30,0.00,,---,0.00,VWS V14.01,2013-08-27 05:44:00,
2013-08-26 23:45:00,66.4,34.0,30.00,SSW,192,0.0,0.0,30,0.00,,---,0.00,VWS V14.01,2013-08-27 05:45:00,
2013-08-26 23:48:00,66.0,33.7,30.00,SSW,192,0.0,0.0,30,0.00,,---,0.00,VWS V14.01,2013-08-27 05:48:00,
2013-08-26 23:49:00,65.8,33.6,30.00,SSW,192,0.0,0.0,30,0.00,,---,0.00,VWS V14.01,2013-08-27 05:49:00,
2013-08-26 23:50:00,65.7,34.2,30.00,SSW,192,0.0,0.0,31,0.00,,---,0.00,VWS V14.01,2013-08-27 05:50:00,
2013-08-26 23:53:00,65.5,34.1,30.00,SSW,192,0.0,0.0,31,0.00,,---,0.00,VWS V14.01,2013-08-27 05:53:00,
2013-08-26 23:54:00,65.3,34.7,30.00,South,171,2.2,2.2,32,0.00,,---,0.00,VWS V14.01,2013-08-27 05:54:00,
2013-08-26 23:55:00,65.3,34.7,30.00,SSE,158,2.7,2.7,32,0.00,,---,0.00,VWS V14.01,2013-08-27 05:55:00,
2013-08-26 23:58:00,64.9,35.2,30.00,SSE,157,0.0,2.7,33,0.00,,---,0.00,VWS V14.01,2013-08-27 05:58:00,